M I D A S
Marine Information and Data Acquisition System
Tripno 1616 of the Zeeleeuw from 2008-11-26 07:43:14 to 2008-11-26 14:49:38
Back to CruiseResearch ActivitiesStationsMapUnderway DataData graphs

EquipmentUnitsComment
TimeDGPSUTC
LatitudeDGPSDM.mWGS84
LongitudeDGPSDM.mWGS84
TemperatureSBE03/SBE38deg celciusITS90
ConductivitySBE21S/mITS90
SalinitySBE21 Practical Salinity Units
ChlorophylAChelsea fluorimeterg/lCalibrated in Aceton
Missing or incorrect values are displayed as -999
Sea surface data collected by the RV Zeeleeuw from 2008-11-26 07:02:40 to 2008-11-26 14:51:00
                                                                                    Next 1000 lines
Time Latitude Longitude Temperature Conductivity Salinity ChlorophylA
2008-11-26 07:02:50 51°13.633 2°56.051 -999 0.074213 0.403229 -0.826448
2008-11-26 07:02:55 51°13.634 2°56.051 -999 0.074213 0.403236 -0.826448
2008-11-26 07:03:00 51°13.634 2°56.051 -999 0.074213 0.403236 -0.826448
2008-11-26 07:03:05 51°13.634 2°56.051 -999 0.074213 0.403229 -0.826448
2008-11-26 07:03:10 51°13.627 2°56.05 -999 0.074213 0.403229 -0.826448
2008-11-26 07:03:15 51°13.626 2°56.049 -999 0.074213 0.403229 -0.826448
2008-11-26 07:03:20 51°13.626 2°56.049 -999 0.074213 0.403229 -0.826448
2008-11-26 07:03:25 51°13.626 2°56.05 -999 0.074213 0.403229 -0.826448
2008-11-26 07:03:29 51°13.626 2°56.05 -999 0.074213 0.403222 -0.861272
2008-11-26 07:03:35 51°13.626 2°56.049 -999 0.074213 0.403222 -0.826448
2008-11-26 07:03:40 51°13.63 2°56.05 -999 0.074213 0.403222 -0.826448
2008-11-26 07:03:45 51°13.626 2°56.049 -999 0.074213 0.403222 -0.826448
2008-11-26 07:03:49 51°13.626 2°56.049 -999 0.074213 0.403222 -0.826448
2008-11-26 07:03:55 51°13.626 2°56.049 -999 0.074213 0.403222 -0.826448
2008-11-26 07:04:00 51°13.626 2°56.049 -999 0.074213 0.403222 -0.826448
2008-11-26 07:04:05 51°13.626 2°56.049 -999 0.074213 0.403222 -0.826448
2008-11-26 07:04:09 51°13.626 2°56.049 -999 0.074213 0.403222 -0.826448
2008-11-26 07:04:15 51°13.626 2°56.049 -999 0.074213 0.403222 -0.826448
2008-11-26 07:04:20 51°13.625 2°56.049 -999 0.074213 0.403222 -0.826448
2008-11-26 07:04:25 51°13.626 2°56.049 -999 0.074213 0.403215 -0.826448
2008-11-26 07:04:29 51°13.626 2°56.049 -999 0.074213 0.403215 -0.826448
2008-11-26 07:04:35 51°13.625 2°56.049 -999 0.074213 0.403215 -0.826448
2008-11-26 07:04:40 51°13.625 2°56.049 -999 0.074213 0.403215 -0.826448
2008-11-26 07:04:45 51°13.625 2°56.049 -999 0.074213 0.403215 -0.826448
2008-11-26 07:04:50 51°13.625 2°56.049 -999 0.074213 0.403215 -0.826448
2008-11-26 07:04:55 51°13.625 2°56.049 -999 0.074213 0.403215 -0.826448
2008-11-26 07:05:00 51°13.625 2°56.049 -999 0.074213 0.403215 -0.826448
2008-11-26 07:05:05 51°13.625 2°56.049 -999 0.074213 0.403215 -0.826448
2008-11-26 07:05:10 51°13.625 2°56.049 -999 0.074213 0.403215 -0.826448
2008-11-26 07:05:15 51°13.625 2°56.049 -999 0.074213 0.403215 -0.826448
2008-11-26 07:05:20 51°13.625 2°56.049 -999 0.074213 0.403215 -0.826448
2008-11-26 07:05:25 51°13.625 2°56.049 -999 0.074213 0.403215 -0.826448
2008-11-26 07:05:30 51°13.625 2°56.049 -999 0.074213 0.403222 -0.826448
2008-11-26 07:05:35 51°13.625 2°56.049 -999 0.074213 0.403215 -0.826448
2008-11-26 07:05:40 51°13.625 2°56.048 -999 0.074213 0.403215 -0.826448
2008-11-26 07:05:45 51°13.625 2°56.049 -999 0.074213 0.403215 -0.826448
2008-11-26 07:05:49 51°13.625 2°56.049 -999 0.074213 0.403215 -0.826448
2008-11-26 07:05:55 51°13.625 2°56.049 -999 0.074213 0.403208 -0.826448
2008-11-26 07:06:00 51°13.625 2°56.049 -999 0.074213 0.403208 -0.826448
2008-11-26 07:06:05 51°13.625 2°56.049 -999 0.074213 0.403208 -0.826448
2008-11-26 07:06:09 51°13.625 2°56.049 -999 0.074213 0.403208 -0.826448
2008-11-26 07:06:15 51°13.625 2°56.049 -999 0.074213 0.403208 -0.826448
2008-11-26 07:06:20 51°13.625 2°56.049 -999 0.074213 0.403208 -0.826448
2008-11-26 07:06:25 51°13.625 2°56.048 -999 0.074213 0.403208 -0.826448
2008-11-26 07:06:30 51°13.625 2°56.048 -999 0.074213 0.403208 -0.826448
2008-11-26 07:06:35 51°13.625 2°56.049 -999 0.074213 0.403208 -0.826448
2008-11-26 07:06:40 51°13.625 2°56.049 -999 0.074213 0.403215 -0.826448
2008-11-26 07:06:45 51°13.625 2°56.049 -999 0.074213 0.403215 -0.826448
2008-11-26 07:06:49 51°13.625 2°56.049 -999 0.074213 0.403208 -0.826448
2008-11-26 07:06:55 51°13.625 2°56.049 -999 0.074213 0.403208 -0.826448
2008-11-26 07:07:00 51°13.625 2°56.049 -999 0.074213 0.403208 -0.826448
2008-11-26 07:07:05 51°13.625 2°56.048 -999 0.074213 0.4032 -0.826448
2008-11-26 07:07:09 51°13.625 2°56.049 -999 0.074213 0.403208 -0.826448
2008-11-26 07:07:15 51°13.625 2°56.049 -999 0.074213 0.4032 -0.826448
2008-11-26 07:07:20 51°13.625 2°56.049 -999 0.074213 0.4032 -0.826448
2008-11-26 07:07:25 51°13.625 2°56.049 -999 0.074213 0.4032 -0.826448
2008-11-26 07:07:30 51°13.625 2°56.049 -999 0.074213 0.4032 -0.826448
2008-11-26 07:07:35 51°13.625 2°56.049 -999 0.074213 0.4032 -0.826448
2008-11-26 07:07:40 51°13.625 2°56.049 -999 0.074213 0.4032 -0.826448
2008-11-26 07:07:45 51°13.625 2°56.049 -999 0.074213 0.403208 -0.826448
2008-11-26 07:07:50 51°13.625 2°56.049 -999 0.074213 0.4032 -0.826448
2008-11-26 07:07:55 51°13.625 2°56.049 -999 0.074213 0.403193 -0.826448
2008-11-26 07:08:00 51°13.624 2°56.049 -999 0.074213 0.403193 -0.826448
2008-11-26 07:08:05 51°13.624 2°56.049 -999 0.074213 0.4032 -0.826448
2008-11-26 07:08:09 51°13.624 2°56.049 -999 0.074213 0.4032 -0.826448
2008-11-26 07:08:15 51°13.624 2°56.049 -999 0.074213 0.4032 -0.826448
2008-11-26 07:08:20 51°13.624 2°56.049 -999 0.074213 0.403193 -0.826448
2008-11-26 07:08:25 51°13.624 2°56.049 -999 0.074213 0.403193 -0.826448
2008-11-26 07:08:29 51°13.624 2°56.049 -999 0.074213 0.403193 -0.826448
2008-11-26 07:08:35 51°13.624 2°56.048 -999 0.074213 0.403193 -0.826448
2008-11-26 07:08:40 51°13.624 2°56.048 -999 0.074213 0.403193 -0.826448
2008-11-26 07:08:45 51°13.624 2°56.049 -999 0.074213 0.403193 -0.826448
2008-11-26 07:08:49 51°13.624 2°56.049 -999 0.074213 0.403193 -0.826448
2008-11-26 07:08:55 51°13.624 2°56.049 -999 0.074213 0.403193 -0.826448
2008-11-26 07:09:00 51°13.623 2°56.049 -999 0.074213 0.403186 -0.826448
2008-11-26 07:09:05 51°13.623 2°56.049 -999 0.074213 0.403186 -0.826448
2008-11-26 07:09:09 51°13.623 2°56.049 -999 0.074213 0.403186 -0.826448
2008-11-26 07:09:15 51°13.623 2°56.049 -999 0.074213 0.403193 -0.826448
2008-11-26 07:09:20 51°13.623 2°56.049 -999 0.074213 0.403193 -0.826448
2008-11-26 07:09:25 51°13.623 2°56.049 -999 0.074213 0.403193 -0.826448
2008-11-26 07:09:30 51°13.623 2°56.049 -999 0.074213 0.403193 -0.826448
2008-11-26 07:09:35 51°13.623 2°56.049 -999 0.074213 0.403193 -0.826448
2008-11-26 07:09:40 51°13.624 2°56.049 -999 0.074213 0.403193 -0.826448
2008-11-26 07:09:45 51°13.623 2°56.049 -999 0.074213 0.403186 -0.826448
2008-11-26 07:09:50 51°13.623 2°56.049 -999 0.074213 0.403186 -0.826448
2008-11-26 07:09:55 51°13.623 2°56.049 -999 0.074213 0.403186 -0.826448
2008-11-26 07:10:00 51°13.623 2°56.049 -999 0.074213 0.403186 -0.826448
2008-11-26 07:10:05 51°13.623 2°56.049 -999 0.074213 0.403179 -0.826448
2008-11-26 07:10:10 51°13.624 2°56.049 -999 0.074213 0.403179 -0.826448
2008-11-26 07:10:15 51°13.623 2°56.049 -999 0.074213 0.403179 -0.826448
2008-11-26 07:10:20 51°13.623 2°56.049 -999 0.074213 0.403186 -0.826448
2008-11-26 07:10:25 51°13.623 2°56.049 -999 0.074213 0.403186 -0.826448
2008-11-26 07:10:29 51°13.623 2°56.049 -999 0.074213 0.403186 -0.826448
2008-11-26 07:10:35 51°13.623 2°56.049 -999 0.074213 0.403186 -0.826448
2008-11-26 07:10:40 51°13.623 2°56.049 -999 0.074213 0.403179 -0.826448
2008-11-26 07:10:45 51°13.623 2°56.049 -999 0.074213 0.403179 -0.826448
2008-11-26 07:10:49 51°13.623 2°56.049 -999 0.074213 0.403172 -0.826448
2008-11-26 07:10:55 51°13.623 2°56.049 -999 0.074213 0.403179 -0.826448
2008-11-26 07:11:00 51°13.623 2°56.049 -999 0.074213 0.403179 -0.826448
2008-11-26 07:11:05 51°13.623 2°56.049 -999 0.074213 0.403172 -0.826448
2008-11-26 07:11:09 51°13.623 2°56.049 -999 0.074213 0.403172 -0.826448
2008-11-26 07:11:15 51°13.623 2°56.049 -999 0.074213 0.403172 -0.826448
2008-11-26 07:11:20 51°13.623 2°56.049 -999 0.074213 0.403172 -0.826448
2008-11-26 07:11:25 51°13.623 2°56.049 -999 0.074213 0.403172 -0.826448
2008-11-26 07:11:29 51°13.623 2°56.049 -999 0.074213 0.403172 -0.826448
2008-11-26 07:11:35 51°13.623 2°56.049 -999 0.074213 0.403172 -0.826448
2008-11-26 07:11:40 51°13.623 2°56.049 -999 0.074213 0.403165 -0.826448
2008-11-26 07:11:45 51°13.623 2°56.049 -999 0.074213 0.403172 -0.826448
2008-11-26 07:11:50 51°13.623 2°56.048 -999 0.074213 0.403165 -0.826448
2008-11-26 07:11:55 51°13.623 2°56.048 -999 0.074213 0.403165 -0.826448
2008-11-26 07:12:00 51°13.623 2°56.048 -999 0.074213 0.403165 -0.826448
2008-11-26 07:12:05 51°13.623 2°56.048 -999 0.074213 0.403165 -0.826448
2008-11-26 07:12:10 51°13.623 2°56.048 -999 0.074213 0.403165 -0.826448
2008-11-26 07:12:15 51°13.623 2°56.048 -999 0.074213 0.403165 -0.826448
2008-11-26 07:12:20 51°13.623 2°56.049 -999 0.074213 0.403165 -0.826448
2008-11-26 07:12:25 51°13.623 2°56.049 -999 0.074213 0.403165 -0.826448
2008-11-26 07:12:29 51°13.623 2°56.049 -999 0.074213 0.403165 -0.826448
2008-11-26 07:12:35 51°13.623 2°56.049 -999 0.074213 0.403165 -0.826448
2008-11-26 07:12:40 51°13.623 2°56.048 -999 0.074213 0.403158 -0.826448
2008-11-26 07:12:45 51°13.623 2°56.048 -999 0.074213 0.403151 -0.826448
2008-11-26 07:12:49 51°13.623 2°56.048 -999 0.074213 0.403151 -0.826448
2008-11-26 07:12:55 51°13.623 2°56.048 -999 0.074213 0.403151 -0.826448
2008-11-26 07:13:00 51°13.623 2°56.048 -999 0.074213 0.403151 -0.826448
2008-11-26 07:13:05 51°13.623 2°56.048 -999 0.074213 0.403151 -0.826448
2008-11-26 07:13:09 51°13.623 2°56.048 -999 0.074213 0.403151 -0.826448
2008-11-26 07:13:15 51°13.623 2°56.048 -999 0.074213 0.403151 -0.826448
2008-11-26 07:13:20 51°13.623 2°56.048 -999 0.074213 0.403144 -0.826448
2008-11-26 07:13:25 51°13.623 2°56.048 -999 0.074213 0.403144 -0.826448
2008-11-26 07:13:29 51°13.623 2°56.048 -999 0.074213 0.403144 -0.826448
2008-11-26 07:13:35 51°13.623 2°56.048 -999 0.074213 0.403151 -0.826448
2008-11-26 07:13:40 51°13.623 2°56.048 -999 0.074213 0.403144 -0.826448
2008-11-26 07:13:45 51°13.623 2°56.048 -999 0.074213 0.403144 -0.826448
2008-11-26 07:13:50 51°13.624 2°56.048 -999 0.074213 0.403144 -0.826448
2008-11-26 07:13:55 51°13.623 2°56.048 -999 0.074213 0.403144 -0.826448
2008-11-26 07:14:00 51°13.624 2°56.048 -999 0.074213 0.403144 -0.826448
2008-11-26 07:14:05 51°13.624 2°56.048 -999 0.074213 0.403137 -0.826448
2008-11-26 07:14:09 51°13.624 2°56.048 -999 0.074213 0.403137 -0.826448
2008-11-26 07:14:14 51°13.624 2°56.048 -999 0.074213 0.403137 -0.826448
2008-11-26 07:14:19 51°13.624 2°56.048 -999 0.074213 0.403137 -0.826448
2008-11-26 07:14:24 51°13.624 2°56.048 -999 0.074213 0.403137 -0.826448
2008-11-26 07:14:29 51°13.625 2°56.048 -999 0.074213 0.403137 -0.826448
2008-11-26 07:14:34 51°13.624 2°56.048 -999 0.074213 0.403137 -0.826448
2008-11-26 07:14:39 51°13.624 2°56.048 -999 0.074213 0.403137 -0.826448
2008-11-26 07:14:44 51°13.624 2°56.048 -999 0.074213 0.403137 -0.826448
2008-11-26 07:14:49 51°13.624 2°56.048 -999 0.074213 0.40313 -0.826448
2008-11-26 07:14:54 51°13.624 2°56.048 -999 0.074213 0.40313 -0.826448
2008-11-26 07:14:59 51°13.624 2°56.048 -999 0.074213 0.40313 -0.826448
2008-11-26 07:15:04 51°13.624 2°56.048 -999 0.074213 0.40313 -0.826448
2008-11-26 07:15:08 51°13.624 2°56.048 -999 0.074213 0.40313 -0.826448
2008-11-26 07:15:13 51°13.624 2°56.048 -999 0.074213 0.403123 -0.826448
2008-11-26 07:15:18 51°13.624 2°56.048 -999 0.074213 0.403123 -0.826448
2008-11-26 07:15:23 51°13.624 2°56.048 -999 0.074213 0.403123 -0.826448
2008-11-26 07:15:28 51°13.623 2°56.047 -999 0.074213 0.403123 -0.826448
2008-11-26 07:15:33 51°13.624 2°56.047 -999 0.074213 0.403123 -0.826448
2008-11-26 07:15:38 51°13.625 2°56.048 -999 0.074213 0.403123 -0.826448
2008-11-26 07:15:43 51°13.625 2°56.048 -999 0.074213 0.403123 -0.826448
2008-11-26 07:15:48 51°13.625 2°56.048 -999 0.074213 0.403116 -0.826448
2008-11-26 07:15:53 51°13.625 2°56.048 -999 0.074213 0.403116 -0.826448
2008-11-26 07:15:58 51°13.625 2°56.048 -999 0.074213 0.403123 -0.826448
2008-11-26 07:16:03 51°13.625 2°56.048 -999 0.074213 0.403116 -0.826448
2008-11-26 07:16:08 51°13.626 2°56.048 -999 0.074213 0.403116 -0.826448
2008-11-26 07:16:13 51°13.626 2°56.048 -999 0.074213 0.403116 -0.826448
2008-11-26 07:16:18 51°13.625 2°56.048 -999 0.074213 0.403116 -0.826448
2008-11-26 07:16:23 51°13.625 2°56.048 -999 0.074213 0.403109 -0.826448
2008-11-26 07:16:28 51°13.626 2°56.048 -999 0.074213 0.403109 -0.826448
2008-11-26 07:16:33 51°13.626 2°56.048 -999 0.074213 0.403109 -0.826448
2008-11-26 07:16:38 51°13.626 2°56.048 -999 0.074213 0.403109 -0.826448
2008-11-26 07:16:43 51°13.626 2°56.048 -999 0.074213 0.403102 -0.826448
2008-11-26 07:16:48 51°13.626 2°56.048 -999 0.074315 0.40368 -0.826448
2008-11-26 07:16:53 51°13.626 2°56.048 -999 0.074315 0.40368 -0.826448
2008-11-26 07:16:58 51°13.626 2°56.048 -999 0.074315 0.40368 -0.826448
2008-11-26 07:17:03 51°13.626 2°56.048 -999 0.074315 0.40368 -0.826448
2008-11-26 07:17:08 51°13.626 2°56.048 -999 0.074315 0.403687 -0.826448
2008-11-26 07:17:13 51°13.626 2°56.048 -999 0.074213 0.403102 -0.826448
2008-11-26 07:17:18 51°13.626 2°56.048 -999 0.074315 0.40368 -0.826448
2008-11-26 07:17:23 51°13.626 2°56.048 -999 0.074315 0.40368 -0.826448
2008-11-26 07:17:28 51°13.626 2°56.048 -999 0.074315 0.40368 -0.826448
2008-11-26 07:17:33 51°13.626 2°56.048 -999 0.074213 0.403102 -0.826448
2008-11-26 07:17:38 51°13.626 2°56.048 -999 0.074315 0.40368 -0.826448
2008-11-26 07:17:43 51°13.626 2°56.048 -999 0.074315 0.403672 -0.826448
2008-11-26 07:17:48 51°13.626 2°56.048 -999 0.074315 0.403672 -0.826448
2008-11-26 07:17:53 51°13.626 2°56.048 -999 0.074315 0.403672 -0.826448
2008-11-26 07:17:58 51°13.626 2°56.048 -999 0.074315 0.403672 -0.826448
2008-11-26 07:18:03 51°13.626 2°56.048 -999 0.074315 0.403672 -0.826448
2008-11-26 07:18:08 51°13.626 2°56.048 -999 0.074315 0.403665 -0.826448
2008-11-26 07:18:13 51°13.626 2°56.048 -999 0.074315 0.403665 -0.826448
2008-11-26 07:18:18 51°13.626 2°56.048 -999 0.074315 0.403665 -0.826448
2008-11-26 07:18:23 51°13.626 2°56.048 -999 0.074315 0.403672 -0.826448
2008-11-26 07:18:28 51°13.626 2°56.048 -999 0.074315 0.403672 -0.826448
2008-11-26 07:18:33 51°13.626 2°56.048 -999 0.074315 0.403672 -0.826448
2008-11-26 07:18:38 51°13.625 2°56.048 -999 0.074315 0.403665 -0.826448
2008-11-26 07:18:43 51°13.625 2°56.048 -999 0.074315 0.403665 -0.826448
2008-11-26 07:18:48 51°13.625 2°56.048 -999 0.074315 0.403665 -0.826448
2008-11-26 07:18:53 51°13.625 2°56.048 -999 0.074315 0.403658 -0.826448
2008-11-26 07:18:58 51°13.626 2°56.049 -999 0.074315 0.403658 -0.826448
2008-11-26 07:19:03 51°13.626 2°56.049 -999 0.074315 0.403658 -0.826448
2008-11-26 07:19:09 51°13.626 2°56.049 -999 0.074315 0.403658 -0.826448
2008-11-26 07:19:13 51°13.625 2°56.049 -999 0.074315 0.403658 -0.826448
2008-11-26 07:19:18 51°13.625 2°56.049 -999 0.074315 0.403658 -0.826448
2008-11-26 07:19:23 51°13.625 2°56.049 -999 0.074315 0.403658 -0.826448
2008-11-26 07:19:29 51°13.625 2°56.049 -999 0.074315 0.403658 -0.826448
2008-11-26 07:19:33 51°13.625 2°56.049 -999 0.074315 0.403658 -0.826448
2008-11-26 07:19:38 51°13.625 2°56.049 -999 0.074315 0.403658 -0.826448
2008-11-26 07:19:43 51°13.625 2°56.049 -999 0.074315 0.403651 -0.826448
2008-11-26 07:19:48 51°13.625 2°56.049 -999 0.074315 0.403651 -0.826448
2008-11-26 07:19:53 51°13.625 2°56.049 -999 0.074315 0.403651 -0.826448
2008-11-26 07:19:59 51°13.624 2°56.049 -999 0.074315 0.403651 -0.826448
2008-11-26 07:20:04 51°13.624 2°56.049 -999 0.074315 0.403651 -0.826448
2008-11-26 07:20:09 51°13.624 2°56.049 -999 0.074315 0.403651 -0.826448
2008-11-26 07:20:13 51°13.624 2°56.049 -999 0.074315 0.403651 -0.826448
2008-11-26 07:20:19 51°13.624 2°56.049 -999 0.074315 0.403651 -0.826448
2008-11-26 07:20:24 51°13.624 2°56.049 -999 0.074315 0.403651 -0.826448
2008-11-26 07:20:29 51°13.624 2°56.049 -999 0.074315 0.403651 -0.826448
2008-11-26 07:20:33 51°13.624 2°56.049 -999 0.074315 0.403651 -0.826448
2008-11-26 07:20:38 51°13.624 2°56.049 -999 0.074315 0.403651 -0.826448
2008-11-26 07:20:44 51°13.624 2°56.048 -999 0.074315 0.403644 -0.826448
2008-11-26 07:20:49 51°13.624 2°56.048 -999 0.074315 0.403644 -0.826448
2008-11-26 07:20:53 51°13.624 2°56.048 -999 0.074315 0.403644 -0.826448
2008-11-26 07:20:58 51°13.624 2°56.048 -999 0.074315 0.403644 -0.826448
2008-11-26 07:21:04 51°13.624 2°56.048 -999 0.074315 0.403644 -0.826448
2008-11-26 07:21:09 51°13.623 2°56.047 -999 0.074315 0.403644 -0.826448
2008-11-26 07:21:13 51°13.622 2°56.047 -999 0.074315 0.403644 -0.826448
2008-11-26 07:21:19 51°13.622 2°56.047 -999 0.074315 0.403637 -0.826448
2008-11-26 07:21:24 51°13.623 2°56.047 -999 0.074315 0.403637 -0.826448
2008-11-26 07:21:29 51°13.623 2°56.048 -999 0.074315 0.403637 -0.826448
2008-11-26 07:21:33 51°13.624 2°56.048 -999 0.074315 0.403644 -0.826448
2008-11-26 07:21:39 51°13.624 2°56.048 -999 0.074315 0.403637 -0.826448
2008-11-26 07:21:44 51°13.625 2°56.048 -999 0.074315 0.403637 -0.826448
2008-11-26 07:21:49 51°13.625 2°56.048 -999 0.074315 0.403637 -0.826448
2008-11-26 07:21:54 51°13.625 2°56.048 -999 0.074315 0.403637 -0.826448
2008-11-26 07:21:59 51°13.625 2°56.048 -999 0.074315 0.403637 -0.826448
2008-11-26 07:22:04 51°13.624 2°56.048 -999 0.074315 0.403637 -0.826448
2008-11-26 07:22:09 51°13.624 2°56.048 -999 0.074315 0.403637 -0.826448
2008-11-26 07:22:14 51°13.624 2°56.048 -999 0.074315 0.40363 -0.826448
2008-11-26 07:22:19 51°13.623 2°56.048 -999 0.074315 0.403637 -0.826448
2008-11-26 07:22:24 51°13.623 2°56.048 -999 0.074315 0.40363 -0.826448
2008-11-26 07:22:29 51°13.623 2°56.048 -999 0.074315 0.40363 -0.826448
2008-11-26 07:22:33 51°13.623 2°56.048 -999 0.074315 0.40363 -0.826448
2008-11-26 07:22:39 51°13.623 2°56.048 -999 0.074315 0.40363 -0.826448
2008-11-26 07:22:44 51°13.623 2°56.048 -999 0.074315 0.40363 -0.826448
2008-11-26 07:22:49 51°13.624 2°56.048 -999 0.074315 0.403623 -0.826448
2008-11-26 07:22:54 51°13.623 2°56.047 -999 0.074315 0.403623 -0.826448
2008-11-26 07:22:59 51°13.62 2°56.046 -999 0.074315 0.403623 -0.826448
2008-11-26 07:23:04 51°13.62 2°56.046 -999 0.074315 0.403623 -0.826448
2008-11-26 07:23:09 51°13.621 2°56.046 -999 0.074315 0.403623 -0.826448
2008-11-26 07:23:14 51°13.622 2°56.046 -999 0.074315 0.403623 -0.826448
2008-11-26 07:23:19 51°13.622 2°56.046 -999 0.074315 0.403616 -0.826448
2008-11-26 07:23:24 51°13.623 2°56.046 -999 0.074315 0.403623 -0.826448
2008-11-26 07:23:29 51°13.623 2°56.046 -999 0.074315 0.403623 -0.826448
2008-11-26 07:23:34 51°13.623 2°56.046 -999 0.074315 0.403616 -0.826448
2008-11-26 07:23:39 51°13.623 2°56.047 -999 0.074315 0.403616 -0.826448
2008-11-26 07:23:44 51°13.623 2°56.047 -999 0.074315 0.403616 -0.826448
2008-11-26 07:23:49 51°13.623 2°56.047 -999 0.074315 0.403616 -0.826448
2008-11-26 07:23:54 51°13.623 2°56.047 -999 0.074315 0.403616 -0.826448
2008-11-26 07:23:59 51°13.623 2°56.047 -999 0.074315 0.403616 -0.826448
2008-11-26 07:24:04 51°13.623 2°56.047 -999 0.074315 0.403609 -0.826448
2008-11-26 07:24:09 51°13.623 2°56.047 -999 0.074315 0.403616 -0.826448
2008-11-26 07:24:14 51°13.623 2°56.047 -999 0.074315 0.403609 -0.826448
2008-11-26 07:24:19 51°13.623 2°56.047 -999 0.074315 0.403609 -0.826448
2008-11-26 07:24:24 51°13.623 2°56.047 -999 0.074315 0.403609 -0.826448
2008-11-26 07:24:29 51°13.623 2°56.047 -999 0.074315 0.403609 -0.826448
2008-11-26 07:24:34 51°13.623 2°56.047 -999 0.074315 0.403609 -0.826448
2008-11-26 07:24:39 51°13.623 2°56.047 -999 0.074315 0.403609 -0.826448
2008-11-26 07:24:44 51°13.623 2°56.047 -999 0.074315 0.403609 -0.826448
2008-11-26 07:24:49 51°13.624 2°56.047 -999 0.074315 0.403609 -0.826448
2008-11-26 07:24:54 51°13.624 2°56.047 -999 0.074315 0.403609 -0.826448
2008-11-26 07:24:59 51°13.624 2°56.047 -999 0.074315 0.403609 -0.826448
2008-11-26 07:25:04 51°13.624 2°56.047 -999 0.074315 0.403609 -0.826448
2008-11-26 07:25:09 51°13.624 2°56.047 -999 0.074315 0.403602 -0.826448
2008-11-26 07:25:14 51°13.624 2°56.047 -999 0.074315 0.403609 -0.826448
2008-11-26 07:25:19 51°13.624 2°56.047 -999 0.074315 0.403609 -0.826448
2008-11-26 07:25:24 51°13.624 2°56.047 -999 0.074315 0.403602 -0.826448
2008-11-26 07:25:29 51°13.624 2°56.047 -999 0.074315 0.403602 -0.826448
2008-11-26 07:25:34 51°13.625 2°56.047 -999 0.074315 0.403602 -0.826448
2008-11-26 07:25:39 51°13.625 2°56.047 -999 0.074315 0.403602 -0.826448
2008-11-26 07:25:44 51°13.625 2°56.047 -999 0.074315 0.403595 -0.826448
2008-11-26 07:25:49 51°13.625 2°56.047 -999 0.074315 0.403602 -0.826448
2008-11-26 07:25:54 51°13.625 2°56.047 -999 0.074315 0.403602 -0.826448
2008-11-26 07:25:59 51°13.625 2°56.047 -999 0.074315 0.403602 -0.826448
2008-11-26 07:26:04 51°13.623 2°56.047 -999 0.074315 0.403602 -0.826448
2008-11-26 07:26:09 51°13.623 2°56.046 -999 0.074315 0.403595 -0.826448
2008-11-26 07:26:14 51°13.621 2°56.046 -999 0.074315 0.403595 -0.826448
2008-11-26 07:26:19 51°13.621 2°56.045 -999 0.074315 0.403595 -0.826448
2008-11-26 07:26:24 51°13.621 2°56.046 -999 0.074315 0.403595 -0.826448
2008-11-26 07:26:29 51°13.622 2°56.046 -999 0.074315 0.403595 -0.826448
2008-11-26 07:26:34 51°13.623 2°56.046 -999 0.074315 0.403595 -0.826448
2008-11-26 07:26:39 51°13.623 2°56.046 -999 0.074315 0.403595 -0.826448
2008-11-26 07:26:44 51°13.623 2°56.046 -999 0.074315 0.403595 -0.826448
2008-11-26 07:26:49 51°13.622 2°56.046 -999 0.074315 0.403588 -0.826448
2008-11-26 07:26:54 51°13.622 2°56.046 -999 0.074315 0.403588 -0.826448
2008-11-26 07:27:00 51°13.622 2°56.046 -999 0.074315 0.403588 -0.826448
2008-11-26 07:27:04 51°13.622 2°56.046 -999 0.074315 0.403588 -0.826448
2008-11-26 07:27:09 51°13.622 2°56.046 -999 0.074315 0.403588 -0.826448
2008-11-26 07:27:14 51°13.623 2°56.046 -999 0.074315 0.403588 -0.826448
2008-11-26 07:27:20 51°13.623 2°56.046 -999 0.074315 0.403588 -0.826448
2008-11-26 07:27:24 51°13.623 2°56.047 -999 0.074315 0.403588 -0.826448
2008-11-26 07:27:29 51°13.623 2°56.047 -999 0.074315 0.403588 -0.826448
2008-11-26 07:27:34 51°13.623 2°56.047 -999 0.074315 0.403588 -0.826448
2008-11-26 07:27:39 51°13.623 2°56.047 -999 0.074315 0.403588 -0.826448
2008-11-26 07:27:45 51°13.623 2°56.047 -999 0.074315 0.403581 -0.826448
2008-11-26 07:27:49 51°13.623 2°56.047 -999 0.074315 0.403581 -0.826448
2008-11-26 07:27:54 51°13.623 2°56.047 -999 0.074315 0.403581 -0.826448
2008-11-26 07:28:00 51°13.624 2°56.047 -999 0.074315 0.403581 -0.826448
2008-11-26 07:28:05 51°13.624 2°56.047 -999 0.074315 0.403581 -0.826448
2008-11-26 07:28:09 51°13.624 2°56.047 -999 0.074315 0.403581 -0.826448
2008-11-26 07:28:14 51°13.624 2°56.047 -999 0.074315 0.403581 -0.826448
2008-11-26 07:28:20 51°13.624 2°56.047 -999 0.074315 0.403581 -0.826448
2008-11-26 07:28:24 51°13.624 2°56.047 -999 0.074315 0.403581 -0.826448
2008-11-26 07:28:29 51°13.624 2°56.047 -999 0.074315 0.403581 -0.826448
2008-11-26 07:28:34 51°13.624 2°56.047 -999 0.074315 0.403581 -0.826448
2008-11-26 07:28:40 51°13.622 2°56.046 -999 0.074315 0.403574 -0.826448
2008-11-26 07:28:45 51°13.622 2°56.046 -999 0.074315 0.403574 -0.826448
2008-11-26 07:28:49 51°13.623 2°56.046 -999 0.074315 0.403574 -0.826448
2008-11-26 07:28:55 51°13.623 2°56.046 -999 0.074315 0.403574 -0.826448
2008-11-26 07:29:00 51°13.622 2°56.046 -999 0.074315 0.403574 -0.826448
2008-11-26 07:29:05 51°13.621 2°56.046 -999 0.074315 0.403574 -0.826448
2008-11-26 07:29:09 51°13.621 2°56.046 -999 0.074315 0.403574 -0.826448
2008-11-26 07:29:14 51°13.622 2°56.046 -999 0.074315 0.403566 -0.826448
2008-11-26 07:29:20 51°13.623 2°56.046 -999 0.074315 0.403566 -0.826448
2008-11-26 07:29:25 51°13.623 2°56.047 -999 0.074315 0.403574 -0.826448
2008-11-26 07:29:29 51°13.624 2°56.047 -999 0.074315 0.403574 -0.826448
2008-11-26 07:29:34 51°13.624 2°56.047 -999 0.074315 0.403566 -0.826448
2008-11-26 07:29:40 51°13.624 2°56.047 -999 0.074315 0.403566 -0.826448
2008-11-26 07:29:45 51°13.625 2°56.047 -999 0.074315 0.403566 -0.826448
2008-11-26 07:29:49 51°13.625 2°56.047 -999 0.074315 0.403566 -0.826448
2008-11-26 07:29:54 51°13.625 2°56.047 -999 0.074315 0.403566 -0.826448
2008-11-26 07:30:00 51°13.625 2°56.048 -999 0.074315 0.403566 -0.826448
2008-11-26 07:30:05 51°13.625 2°56.048 -999 0.074315 0.403559 -0.826448
2008-11-26 07:30:09 51°13.625 2°56.048 -999 0.074315 0.403559 -0.826448
2008-11-26 07:30:14 51°13.625 2°56.048 -999 0.074315 0.403559 -0.826448
2008-11-26 07:30:20 51°13.625 2°56.048 -999 0.074315 0.403559 -0.826448
2008-11-26 07:30:24 51°13.624 2°56.048 -999 0.074315 0.403559 -0.826448
2008-11-26 07:30:30 51°13.621 2°56.047 -999 0.074315 0.403559 -0.826448
2008-11-26 07:30:35 51°13.62 2°56.046 -999 0.074315 0.403552 -0.826448
2008-11-26 07:30:40 51°13.622 2°56.047 -999 0.074315 0.403552 -0.826448
2008-11-26 07:30:44 51°13.623 2°56.048 -999 0.074315 0.403552 -0.826448
2008-11-26 07:30:49 51°13.625 2°56.048 -999 0.074315 0.403552 -0.826448
2008-11-26 07:30:55 51°13.626 2°56.049 -999 0.074315 0.403552 -0.826448
2008-11-26 07:31:00 51°13.626 2°56.049 -999 0.074315 0.403552 -0.826448
2008-11-26 07:31:05 51°13.626 2°56.049 -999 0.074315 0.403552 -0.826448
2008-11-26 07:31:09 51°13.626 2°56.049 -999 0.074315 0.403552 -0.826448
2008-11-26 07:31:15 51°13.626 2°56.049 -999 0.074315 0.403552 -0.826448
2008-11-26 07:31:20 51°13.625 2°56.048 -999 0.074315 0.403545 -0.826448
2008-11-26 07:31:25 51°13.625 2°56.048 -999 0.074315 0.403545 -0.826448
2008-11-26 07:31:29 51°13.625 2°56.048 -999 0.074315 0.403545 -0.826448
2008-11-26 07:31:35 51°13.625 2°56.048 -999 0.074315 0.403545 -0.826448
2008-11-26 07:31:40 51°13.625 2°56.048 -999 0.074315 0.403545 -0.826448
2008-11-26 07:31:45 51°13.625 2°56.048 -999 0.074315 0.403545 -0.826448
2008-11-26 07:31:49 51°13.625 2°56.048 -999 0.074315 0.403545 -0.826448
2008-11-26 07:31:54 51°13.625 2°56.048 -999 0.074315 0.403545 -0.826448
2008-11-26 07:32:00 51°13.625 2°56.048 -999 0.074315 0.403545 -0.826448
2008-11-26 07:32:05 51°13.625 2°56.048 -999 0.074315 0.403538 -0.826448
2008-11-26 07:32:09 51°13.625 2°56.048 -999 0.074315 0.403538 -0.826448
2008-11-26 07:32:15 51°13.625 2°56.047 -999 0.074315 0.403538 -0.826448
2008-11-26 07:32:20 51°13.625 2°56.047 -999 0.074315 0.403538 -0.826448
2008-11-26 07:32:25 51°13.625 2°56.048 -999 0.074315 0.403531 -0.826448
2008-11-26 07:32:29 51°13.625 2°56.048 -999 0.074315 0.403531 -0.826448
2008-11-26 07:32:34 51°13.625 2°56.048 -999 0.074315 0.403531 -0.826448
2008-11-26 07:32:40 51°13.625 2°56.048 -999 0.074315 0.403531 -0.826448
2008-11-26 07:32:45 51°13.625 2°56.048 -999 0.074315 0.403531 -0.826448
2008-11-26 07:32:50 51°13.625 2°56.048 -999 0.074315 0.403531 -0.826448
2008-11-26 07:32:54 51°13.625 2°56.048 -999 0.074315 0.403531 -0.826448
2008-11-26 07:33:00 51°13.625 2°56.048 -999 0.074315 0.403531 -0.826448
2008-11-26 07:33:05 51°13.624 2°56.048 -999 0.074315 0.403524 -0.826448
2008-11-26 07:33:10 51°13.624 2°56.048 -999 0.074315 0.403531 -0.826448
2008-11-26 07:33:15 51°13.624 2°56.048 -999 0.074315 0.403524 -0.826448
2008-11-26 07:33:20 51°13.624 2°56.048 -999 0.074315 0.403524 -0.826448
2008-11-26 07:33:25 51°13.624 2°56.048 -999 0.074315 0.403524 -0.826448
2008-11-26 07:33:29 51°13.624 2°56.048 -999 0.074315 0.403524 -0.826448
2008-11-26 07:33:34 51°13.624 2°56.048 -999 0.074315 0.403524 -0.826448
2008-11-26 07:33:40 51°13.624 2°56.048 -999 0.074315 0.403524 -0.826448
2008-11-26 07:33:45 51°13.624 2°56.048 -999 0.074315 0.403524 -0.826448
2008-11-26 07:33:49 51°13.624 2°56.048 -999 0.074315 0.403517 -0.826448
2008-11-26 07:33:55 51°13.625 2°56.048 -999 0.074315 0.403517 -0.826448
2008-11-26 07:34:00 51°13.626 2°56.048 -999 0.074315 0.403517 -0.826448
2008-11-26 07:34:05 51°13.626 2°56.049 -999 0.074315 0.403517 -0.826448
2008-11-26 07:34:09 51°13.626 2°56.049 -999 0.074315 0.403517 -0.826448
2008-11-26 07:34:14 51°13.626 2°56.049 -999 0.074315 0.403517 -0.826448
2008-11-26 07:34:20 51°13.626 2°56.049 -999 0.074315 0.403517 -0.826448
2008-11-26 07:34:25 51°13.626 2°56.048 -999 0.074315 0.403517 -0.826448
2008-11-26 07:34:29 51°13.625 2°56.048 -999 0.074315 0.403517 -0.826448
2008-11-26 07:34:34 51°13.625 2°56.048 -999 0.074315 0.40351 -0.826448
2008-11-26 07:34:40 51°13.625 2°56.048 -999 0.074315 0.40351 -0.826448
2008-11-26 07:34:45 51°13.624 2°56.048 -999 0.074315 0.40351 -0.826448
2008-11-26 07:34:49 51°13.624 2°56.048 -999 0.074315 0.40351 -0.826448
2008-11-26 07:34:54 51°13.624 2°56.048 -999 0.074315 0.403503 -0.826448
2008-11-26 07:35:00 51°13.623 2°56.047 -999 0.074315 0.403503 -0.826448
2008-11-26 07:35:05 51°13.622 2°56.047 -999 0.074315 0.40351 -0.826448
2008-11-26 07:35:10 51°13.621 2°56.047 -999 0.074315 0.403503 -0.826448
2008-11-26 07:35:15 51°13.621 2°56.047 -999 0.074315 0.40351 -0.826448
2008-11-26 07:35:20 51°13.622 2°56.047 -999 0.074315 0.403503 -0.826448
2008-11-26 07:35:24 51°13.622 2°56.047 -999 0.074315 0.403503 -0.826448
2008-11-26 07:35:29 51°13.623 2°56.047 -999 0.074315 0.403503 -0.826448
2008-11-26 07:35:35 51°13.623 2°56.047 -999 0.074315 0.403496 -0.826448
2008-11-26 07:35:40 51°13.623 2°56.047 -999 0.074315 0.403496 -0.826448
2008-11-26 07:35:45 51°13.623 2°56.047 -999 0.074315 0.403496 -0.826448
2008-11-26 07:35:49 51°13.623 2°56.047 -999 0.074315 0.403496 -0.826448
2008-11-26 07:35:55 51°13.623 2°56.047 -999 0.074315 0.403496 -0.826448
2008-11-26 07:36:00 51°13.623 2°56.047 -999 0.074315 0.403496 -0.826448
2008-11-26 07:36:05 51°13.623 2°56.047 -999 0.074315 0.403496 -0.826448
2008-11-26 07:36:09 51°13.624 2°56.047 -999 0.074315 0.403489 -0.826448
2008-11-26 07:36:14 51°13.624 2°56.047 -999 0.074315 0.403489 -0.826448
2008-11-26 07:36:20 51°13.624 2°56.047 -999 0.074315 0.403489 -0.826448
2008-11-26 07:36:25 51°13.624 2°56.047 -999 0.074315 0.403489 -0.826448
2008-11-26 07:36:29 51°13.624 2°56.047 -999 0.074315 0.403489 -0.826448
2008-11-26 07:36:34 51°13.624 2°56.047 -999 0.074315 0.403496 -0.826448
2008-11-26 07:36:40 51°13.624 2°56.047 -999 0.074315 0.403489 -0.826448
2008-11-26 07:36:45 51°13.624 2°56.047 -999 0.074315 0.403482 -0.826448
2008-11-26 07:36:49 51°13.624 2°56.047 -999 0.074315 0.403489 -0.826448
2008-11-26 07:36:54 51°13.624 2°56.047 -999 0.074315 0.403489 -0.826448
2008-11-26 07:37:00 51°13.624 2°56.047 -999 0.074315 0.403489 -0.826448
2008-11-26 07:37:04 51°13.624 2°56.047 -999 0.074315 0.403482 -0.826448
2008-11-26 07:37:09 51°13.624 2°56.046 -999 0.074315 0.403482 -0.826448
2008-11-26 07:37:14 51°13.624 2°56.046 -999 0.074315 0.403482 -0.826448
2008-11-26 07:37:20 51°13.624 2°56.046 -999 0.074315 0.403482 -0.826448
2008-11-26 07:37:24 51°13.624 2°56.046 -999 0.074315 0.403482 -0.826448
2008-11-26 07:37:30 51°13.624 2°56.046 -999 0.074315 0.403482 -0.826448
2008-11-26 07:37:35 51°13.624 2°56.046 -999 0.074315 0.403482 -0.826448
2008-11-26 07:37:40 51°13.624 2°56.046 -999 0.074315 0.403482 -0.826448
2008-11-26 07:37:44 51°13.624 2°56.046 -999 0.074315 0.403482 -0.826448
2008-11-26 07:37:49 51°13.623 2°56.046 -999 0.074315 0.403475 -0.826448
2008-11-26 07:37:54 51°13.624 2°56.046 -999 0.074315 0.403475 -0.826448
2008-11-26 07:38:00 51°13.624 2°56.046 -999 0.074315 0.403475 -0.826448
2008-11-26 07:38:05 51°13.624 2°56.046 -999 0.074315 0.403475 -0.826448
2008-11-26 07:38:09 51°13.624 2°56.046 -999 0.074315 0.403475 -0.826448
2008-11-26 07:38:15 51°13.624 2°56.046 -999 0.074315 0.403468 -0.826448
2008-11-26 07:38:20 51°13.624 2°56.046 -999 0.074315 0.403468 -0.826448
2008-11-26 07:38:25 51°13.624 2°56.046 -999 0.074315 0.403468 -0.826448
2008-11-26 07:38:29 51°13.624 2°56.046 -999 0.074315 0.403468 -0.826448
2008-11-26 07:38:34 51°13.624 2°56.046 -999 0.074315 0.403468 -0.826448
2008-11-26 07:38:40 51°13.624 2°56.046 -999 0.074315 0.403468 -0.826448
2008-11-26 07:38:45 51°13.624 2°56.046 -999 0.074315 0.403468 -0.826448
2008-11-26 07:38:49 51°13.624 2°56.046 -999 0.074315 0.403468 -0.826448
2008-11-26 07:38:54 51°13.625 2°56.046 -999 0.074315 0.403468 -0.826448
2008-11-26 07:39:00 51°13.624 2°56.046 -999 0.074315 0.403468 -0.826448
2008-11-26 07:39:05 51°13.624 2°56.046 -999 0.074315 0.403468 -0.826448
2008-11-26 07:39:09 51°13.624 2°56.046 -999 0.074315 0.403468 -0.826448
2008-11-26 07:39:14 51°13.624 2°56.047 -999 0.074315 0.40346 -0.826448
2008-11-26 07:39:20 51°13.625 2°56.047 -999 0.074315 0.40346 -0.826448
2008-11-26 07:39:25 51°13.625 2°56.047 -999 0.074315 0.403453 -0.826448
2008-11-26 07:39:29 51°13.625 2°56.047 -999 0.074315 0.403453 -0.826448
2008-11-26 07:39:34 51°13.625 2°56.047 -999 0.074418 0.404038 -0.826448
2008-11-26 07:39:40 51°13.625 2°56.047 -999 0.074315 0.403453 -0.826448
2008-11-26 07:39:44 51°13.625 2°56.047 -999 0.074315 0.403453 -0.826448
2008-11-26 07:39:49 51°13.625 2°56.047 -999 0.074315 0.40346 -0.826448
2008-11-26 07:39:55 51°13.625 2°56.047 -999 0.074315 0.40346 -0.826448
2008-11-26 07:40:00 51°13.625 2°56.047 -999 0.074315 0.40346 -0.826448
2008-11-26 07:40:04 51°13.625 2°56.047 -999 0.074315 0.403453 -0.826448
2008-11-26 07:40:09 51°13.625 2°56.047 -999 0.074315 0.403453 -0.826448
2008-11-26 07:40:14 51°13.625 2°56.047 -999 0.074315 0.403453 -0.826448
2008-11-26 07:40:20 51°13.625 2°56.047 -999 0.074418 0.404031 -0.826448
2008-11-26 07:40:25 51°13.625 2°56.047 -999 0.074418 0.404024 -0.826448
2008-11-26 07:40:29 51°13.625 2°56.047 -999 0.074418 0.404024 -0.826448
2008-11-26 07:40:34 51°13.625 2°56.047 -999 0.074315 0.403453 -0.826448
2008-11-26 07:40:40 51°13.625 2°56.047 -999 0.074315 0.403453 -0.826448
2008-11-26 07:40:45 51°13.625 2°56.047 -999 0.074418 0.404024 -0.826448
2008-11-26 07:40:49 51°13.625 2°56.047 -999 0.074315 0.403453 -0.826448
2008-11-26 07:40:54 51°13.625 2°56.047 -999 0.074315 0.403453 -0.826448
2008-11-26 07:41:00 51°13.625 2°56.047 -999 0.074418 0.404024 -0.826448
2008-11-26 07:41:05 51°13.625 2°56.047 -999 0.074418 0.404024 -0.826448
2008-11-26 07:41:09 51°13.625 2°56.047 -999 0.074315 0.403446 -0.826448
2008-11-26 07:41:14 51°13.625 2°56.047 -999 0.074418 0.404017 -0.826448
2008-11-26 07:41:20 51°13.625 2°56.047 -999 0.074418 0.404017 -0.826448
2008-11-26 07:41:25 51°13.625 2°56.047 -999 0.074418 0.404017 -0.826448
2008-11-26 07:41:29 51°13.625 2°56.047 -999 0.074418 0.404017 -0.826448
2008-11-26 07:41:34 51°13.625 2°56.047 -999 0.074418 0.404017 -0.826448
2008-11-26 07:41:40 51°13.625 2°56.047 -999 0.074418 0.404017 -0.826448
2008-11-26 07:41:44 51°13.625 2°56.047 -999 0.074418 0.404017 -0.826448
2008-11-26 07:41:50 51°13.625 2°56.047 -999 0.074418 0.404017 -0.826448
2008-11-26 07:41:55 51°13.625 2°56.047 -999 0.074418 0.404017 -0.826448
2008-11-26 07:42:00 51°13.625 2°56.047 -999 0.074418 0.404017 -0.826448
2008-11-26 07:42:05 51°13.625 2°56.047 -999 0.074418 0.404017 -0.826448
2008-11-26 07:42:10 51°13.625 2°56.047 -999 0.074418 0.40401 -0.826448
2008-11-26 07:42:15 51°13.625 2°56.047 -999 0.074418 0.404017 -0.826448
2008-11-26 07:42:20 51°13.625 2°56.047 -999 0.074418 0.40401 -0.826448
2008-11-26 07:42:25 51°13.625 2°56.047 -999 0.074418 0.40401 -0.826448
2008-11-26 07:42:29 51°13.625 2°56.048 -999 0.074418 0.40401 -0.826448
2008-11-26 07:42:35 51°13.624 2°56.047 -999 0.074418 0.40401 -0.826448
2008-11-26 07:42:40 51°13.623 2°56.047 -999 0.074418 0.40401 -0.826448
2008-11-26 07:42:45 51°13.622 2°56.047 -999 0.074418 0.40401 -0.826448
2008-11-26 07:42:49 51°13.622 2°56.047 -999 0.074418 0.40401 -0.826448
2008-11-26 07:42:54 51°13.622 2°56.047 -999 0.074418 0.40401 -0.826448
2008-11-26 07:43:00 51°13.622 2°56.047 -999 0.074418 0.40401 -0.826448
2008-11-26 07:43:05 51°13.622 2°56.047 -999 0.074418 0.404003 -0.826448
2008-11-26 07:43:09 51°13.622 2°56.047 -999 0.074418 0.404003 -0.826448
2008-11-26 07:43:14 51°13.623 2°56.047 -999 0.074418 0.404003 -0.826448
2008-11-26 07:43:19 51°13.623 2°56.047 -999 0.074418 0.404003 -0.826448
2008-11-26 07:43:25 51°13.623 2°56.047 -999 0.074418 0.404003 -0.826448
2008-11-26 07:43:29 51°13.623 2°56.047 -999 0.074418 0.404003 -0.826448
2008-11-26 07:43:34 51°13.624 2°56.047 -999 0.074418 0.404003 -0.826448
2008-11-26 07:43:40 51°13.624 2°56.048 -999 0.074418 0.404003 -0.826448
2008-11-26 07:43:45 51°13.624 2°56.048 -999 0.074418 0.404003 -0.826448
2008-11-26 07:43:49 51°13.624 2°56.048 -999 0.074418 0.404003 -0.826448
2008-11-26 07:43:54 51°13.625 2°56.048 -999 0.074418 0.403996 -0.826448
2008-11-26 07:44:00 51°13.624 2°56.048 -999 0.074418 0.403996 -0.826448
2008-11-26 07:44:05 51°13.624 2°56.048 -999 0.074418 0.404003 -0.826448
2008-11-26 07:44:10 51°13.624 2°56.048 -999 0.074418 0.403996 -0.826448
2008-11-26 07:44:15 51°13.624 2°56.048 -999 0.074418 0.403996 -0.826448
2008-11-26 07:44:20 51°13.624 2°56.048 -999 0.074418 0.403996 -0.826448
2008-11-26 07:44:24 51°13.624 2°56.048 -999 0.074418 0.403996 -0.826448
2008-11-26 07:44:29 51°13.624 2°56.048 -999 0.074418 0.403996 -0.826448
2008-11-26 07:44:34 51°13.624 2°56.048 -999 0.074418 0.403996 -0.826448
2008-11-26 07:44:40 51°13.624 2°56.047 -999 0.074418 0.403996 -0.826448
2008-11-26 07:44:45 51°13.624 2°56.047 -999 0.074418 0.403996 -0.826448
2008-11-26 07:44:49 51°13.624 2°56.047 -999 0.074418 0.403996 -0.826448
2008-11-26 07:44:55 51°13.624 2°56.047 -999 0.074418 0.403996 -0.826448
2008-11-26 07:45:00 51°13.623 2°56.047 -999 0.074418 0.403996 -0.826448
2008-11-26 07:45:05 51°13.623 2°56.047 -999 0.074418 0.403989 -0.826448
2008-11-26 07:45:09 51°13.623 2°56.047 -999 0.074418 0.403989 -0.826448
2008-11-26 07:45:15 51°13.623 2°56.047 -999 0.074418 0.403989 -0.826448
2008-11-26 07:45:20 51°13.622 2°56.047 -999 0.074418 0.403989 -0.826448
2008-11-26 07:45:25 51°13.623 2°56.047 -999 0.074418 0.403989 -0.826448
2008-11-26 07:45:29 51°13.623 2°56.047 -999 0.074418 0.403989 -0.826448
2008-11-26 07:45:34 51°13.623 2°56.047 -999 0.074418 0.403982 -0.826448
2008-11-26 07:45:40 51°13.623 2°56.047 -999 0.074418 0.403982 -0.826448
2008-11-26 07:45:45 51°13.623 2°56.047 -999 0.074418 0.403982 -0.826448
2008-11-26 07:45:49 51°13.622 2°56.047 -999 0.074418 0.403982 -0.826448
2008-11-26 07:45:54 51°13.623 2°56.047 -999 0.074418 0.403982 -0.826448
2008-11-26 07:46:00 51°13.623 2°56.047 -999 0.074418 0.403982 -0.826448
2008-11-26 07:46:05 51°13.623 2°56.047 -999 0.074418 0.403982 -0.826448
2008-11-26 07:46:10 51°13.623 2°56.047 -999 0.074418 0.403982 -0.826448
2008-11-26 07:46:15 51°13.623 2°56.047 -999 0.074418 0.403982 -0.826448
2008-11-26 07:46:20 51°13.624 2°56.046 -999 0.074418 0.403975 -0.826448
2008-11-26 07:46:25 51°13.625 2°56.044 -999 0.074418 0.403975 -0.826448
2008-11-26 07:46:30 51°13.626 2°56.041 -999 0.074418 0.403975 -0.826448
2008-11-26 07:46:35 51°13.626 2°56.037 -999 0.074418 0.403982 -0.826448
2008-11-26 07:46:40 51°13.627 2°56.033 -999 0.074418 0.403982 -0.826448
2008-11-26 07:46:45 51°13.628 2°56.027 -999 0.074418 0.403982 -0.791624
2008-11-26 07:46:50 51°13.629 2°56.021 -999 0.074418 0.403975 -0.826448
2008-11-26 07:46:55 51°13.631 2°56.015 -999 0.074418 0.403975 -0.826448
2008-11-26 07:47:00 51°13.633 2°56.008 -999 0.074418 0.403975 -0.826448
2008-11-26 07:47:05 51°13.635 2°56.001 -999 0.074418 0.403975 -0.826448
2008-11-26 07:47:10 51°13.636 2°55.994 -999 0.074418 0.403975 -0.826448
2008-11-26 07:47:15 51°13.638 2°55.986 -999 0.074418 0.403975 -0.826448
2008-11-26 07:47:20 51°13.64 2°55.977 -999 0.074418 0.403975 -0.826448
2008-11-26 07:47:25 51°13.642 2°55.969 -999 0.074418 0.403975 -0.826448
2008-11-26 07:47:30 51°13.644 2°55.96 -999 0.074418 0.403975 -0.826448
2008-11-26 07:47:35 51°13.646 2°55.95 -999 0.074418 0.403975 -0.826448
2008-11-26 07:47:40 51°13.649 2°55.941 -999 0.074418 0.403975 -0.826448
2008-11-26 07:47:45 51°13.652 2°55.932 -999 0.074418 0.403982 -0.826448
2008-11-26 07:47:50 51°13.655 2°55.923 -999 0.074418 0.403982 -0.826448
2008-11-26 07:47:55 51°13.657 2°55.914 -999 0.074418 0.403982 -0.826448
2008-11-26 07:48:00 51°13.66 2°55.906 -999 0.074418 0.403982 -0.826448
2008-11-26 07:48:05 51°13.662 2°55.898 -999 0.074418 0.403975 -0.826448
2008-11-26 07:48:10 51°13.665 2°55.89 -999 0.074418 0.403982 -0.826448
2008-11-26 07:48:15 51°13.667 2°55.883 -999 0.074418 0.403967 -0.826448
2008-11-26 07:48:20 51°13.668 2°55.875 -999 0.074418 0.40396 -0.826448
2008-11-26 07:48:25 51°13.671 2°55.867 -999 0.074418 0.403953 -0.861272
2008-11-26 07:48:30 51°13.674 2°55.86 -999 0.074418 0.403953 -0.861272
2008-11-26 07:48:35 51°13.676 2°55.852 -999 0.074418 0.403953 -0.826448
2008-11-26 07:48:40 51°13.678 2°55.844 -999 0.074418 0.403946 -0.791624
2008-11-26 07:48:45 51°13.68 2°55.837 -999 0.074418 0.403946 -0.826448
2008-11-26 07:48:50 51°13.683 2°55.829 -999 0.074418 0.403939 -0.826448
2008-11-26 07:48:55 51°13.685 2°55.822 -999 0.074418 0.403939 -0.826448
2008-11-26 07:49:00 51°13.687 2°55.815 -999 0.074418 0.403939 -0.826448
2008-11-26 07:49:05 51°13.689 2°55.808 -999 0.074418 0.403939 -0.826448
2008-11-26 07:49:10 51°13.691 2°55.801 -999 0.074418 0.403939 -0.826448
2008-11-26 07:49:15 51°13.693 2°55.794 -999 0.074418 0.403939 -0.826448
2008-11-26 07:49:20 51°13.695 2°55.786 -999 0.074418 0.403939 -0.826448
2008-11-26 07:49:25 51°13.697 2°55.779 -999 0.074418 0.403939 -0.826448
2008-11-26 07:49:29 51°13.698 2°55.774 -999 0.074418 0.403939 -0.826448
2008-11-26 07:49:35 51°13.699 2°55.765 -999 0.074418 0.403939 -0.826448
2008-11-26 07:49:40 51°13.7 2°55.759 -999 0.074418 0.403946 -0.826448
2008-11-26 07:49:45 51°13.7 2°55.753 -999 0.074418 0.403946 -0.826448
2008-11-26 07:49:49 51°13.7 2°55.748 -999 0.074418 0.403946 -0.826448
2008-11-26 07:49:54 51°13.7 2°55.743 -999 0.074418 0.403946 -0.826448
2008-11-26 07:50:00 51°13.7 2°55.737 -999 0.074418 0.403946 -0.826448
2008-11-26 07:50:05 51°13.7 2°55.733 -999 0.074418 0.403953 -0.826448
2008-11-26 07:50:09 51°13.7 2°55.73 -999 0.074418 0.403946 -0.826448
2008-11-26 07:50:14 51°13.699 2°55.727 -999 0.074418 0.403946 -0.826448
2008-11-26 07:50:20 51°13.699 2°55.723 -999 0.074418 0.403939 -0.826448
2008-11-26 07:50:25 51°13.699 2°55.721 -999 0.074418 0.403939 -0.826448
2008-11-26 07:50:29 51°13.699 2°55.719 -999 0.074418 0.403939 -0.826448
2008-11-26 07:50:34 51°13.698 2°55.717 -999 0.074418 0.403939 -0.826448
2008-11-26 07:50:40 51°13.698 2°55.715 -999 0.074418 0.403939 -0.826448
2008-11-26 07:50:45 51°13.698 2°55.714 -999 0.074418 0.403932 -0.826448
2008-11-26 07:50:49 51°13.698 2°55.714 -999 0.074418 0.403932 -0.826448
2008-11-26 07:50:54 51°13.699 2°55.715 -999 0.074418 0.403932 -0.826448
2008-11-26 07:51:00 51°13.7 2°55.717 -999 0.074418 0.403932 -0.826448
2008-11-26 07:51:04 51°13.701 2°55.719 -999 0.074418 0.403932 -0.826448
2008-11-26 07:51:09 51°13.703 2°55.721 -999 0.074418 0.403939 -0.791624
2008-11-26 07:51:14 51°13.705 2°55.724 -999 0.074418 0.403939 -0.791624
2008-11-26 07:51:20 51°13.708 2°55.727 -999 0.074418 0.403946 -0.791624
2008-11-26 07:51:24 51°13.711 2°55.728 -999 0.074418 0.403946 -0.791624
2008-11-26 07:51:29 51°13.714 2°55.73 -999 0.074418 0.403946 -0.791624
2008-11-26 07:51:34 51°13.718 2°55.73 -999 0.074418 0.403946 -0.826448
2008-11-26 07:51:40 51°13.723 2°55.73 -999 0.074418 0.403946 -0.791624
2008-11-26 07:51:44 51°13.727 2°55.729 -999 0.074418 0.403946 -0.791624
2008-11-26 07:51:49 51°13.733 2°55.726 -999 0.074418 0.403946 -0.7568
2008-11-26 07:51:54 51°13.738 2°55.722 -999 0.074418 0.403953 -0.7568
2008-11-26 07:52:00 51°13.746 2°55.715 -999 0.074418 0.403953 -0.7568
2008-11-26 07:52:04 51°13.751 2°55.71 -999 0.074418 0.403939 -0.791624
2008-11-26 07:52:09 51°13.758 2°55.703 -999 0.074418 0.403925 -0.791624
2008-11-26 07:52:14 51°13.766 2°55.695 -999 0.074418 0.403918 -0.791624
2008-11-26 07:52:20 51°13.775 2°55.686 -999 0.074418 0.403904 -0.826448
2008-11-26 07:52:24 51°13.782 2°55.679 -999 0.074418 0.403911 -0.791624
2008-11-26 07:52:29 51°13.791 2°55.671 -999 0.074418 0.403911 -0.791624
2008-11-26 07:52:34 51°13.8 2°55.662 -999 0.074418 0.403911 -0.826448
2008-11-26 07:52:39 51°13.809 2°55.654 -999 0.074418 0.403925 -0.791624
2008-11-26 07:52:44 51°13.819 2°55.646 -999 0.074418 0.403932 -0.791624
2008-11-26 07:52:49 51°13.828 2°55.637 -999 0.074418 0.403939 -0.791624
2008-11-26 07:52:54 51°13.838 2°55.628 -999 0.074418 0.403939 -0.826448
2008-11-26 07:52:59 51°13.848 2°55.62 -999 0.074418 0.403939 -0.826448
2008-11-26 07:53:04 51°13.859 2°55.611 -999 0.074418 0.403939 -0.826448
2008-11-26 07:53:09 51°13.869 2°55.603 -999 0.074418 0.403932 -0.826448
2008-11-26 07:53:14 51°13.88 2°55.594 -999 0.074418 0.403925 -0.826448
2008-11-26 07:53:19 51°13.891 2°55.586 -999 0.074418 0.403925 -0.826448
2008-11-26 07:53:24 51°13.902 2°55.578 -999 0.074418 0.403925 -0.826448
2008-11-26 07:53:29 51°13.913 2°55.569 -999 0.074418 0.403932 -0.791624
2008-11-26 07:53:34 51°13.924 2°55.561 -999 0.074418 0.403939 -0.826448
2008-11-26 07:53:39 51°13.935 2°55.552 -999 0.074418 0.403939 -0.826448
2008-11-26 07:53:44 51°13.946 2°55.543 -999 0.074418 0.403946 -0.791624
2008-11-26 07:53:49 51°13.956 2°55.535 -999 0.074418 0.403953 -0.826448
2008-11-26 07:53:54 51°13.967 2°55.526 -999 0.074418 0.403953 -0.791624
2008-11-26 07:53:59 51°13.978 2°55.518 -999 0.074418 0.403953 -0.791624
2008-11-26 07:54:04 51°13.989 2°55.509 -999 0.074418 0.403946 -0.791624
2008-11-26 07:54:09 51°14 2°55.501 -999 0.074418 0.403946 -0.826448
2008-11-26 07:54:14 51°14.011 2°55.492 -999 0.074418 0.403946 -0.791624
2008-11-26 07:54:19 51°14.022 2°55.484 -999 0.074418 0.403939 -0.826448
2008-11-26 07:54:24 51°14.033 2°55.477 -999 0.074418 0.403939 -0.791624
2008-11-26 07:54:29 51°14.044 2°55.468 -999 0.074418 0.403939 -0.791624
2008-11-26 07:54:34 51°14.055 2°55.46 -999 0.074418 0.403939 -0.791624
2008-11-26 07:54:39 51°14.066 2°55.452 -999 0.074418 0.403946 -0.791624
2008-11-26 07:54:44 51°14.078 2°55.444 -999 0.074418 0.403946 -0.791624
2008-11-26 07:54:49 51°14.089 2°55.435 -999 0.074418 0.403953 -0.791624
2008-11-26 07:54:54 51°14.1 2°55.427 -999 0.074418 0.403953 -0.791624
2008-11-26 07:54:59 51°14.111 2°55.418 -999 0.074418 0.403953 -0.791624
2008-11-26 07:55:04 51°14.122 2°55.409 -999 0.074418 0.403953 -0.791624
2008-11-26 07:55:09 51°14.132 2°55.399 -999 0.074418 0.40396 -0.791624
2008-11-26 07:55:14 51°14.143 2°55.391 -999 0.074418 0.403946 -0.791624
2008-11-26 07:55:20 51°14.156 2°55.38 -999 0.074418 0.403953 -0.791624
2008-11-26 07:55:25 51°14.167 2°55.37 -999 0.074418 0.403953 -0.791624
2008-11-26 07:55:29 51°14.175 2°55.362 -999 0.074418 0.403953 -0.791624
2008-11-26 07:55:34 51°14.186 2°55.352 -999 0.074418 0.403953 -0.791624
2008-11-26 07:55:39 51°14.196 2°55.341 -999 0.074418 0.40396 -0.791624
2008-11-26 07:55:44 51°14.206 2°55.329 -999 0.074418 0.40396 -0.791624
2008-11-26 07:55:49 51°14.216 2°55.317 -999 0.074418 0.40396 -0.791624
2008-11-26 07:55:53 51°14.224 2°55.308 -999 0.074418 0.403953 -0.791624
2008-11-26 07:55:58 51°14.234 2°55.295 -999 0.074418 0.403953 -0.791624
2008-11-26 07:56:03 51°14.243 2°55.282 -999 0.074418 0.403953 -0.791624
2008-11-26 07:56:08 51°14.252 2°55.268 -999 0.074418 0.40396 -0.791624
2008-11-26 07:56:13 51°14.261 2°55.253 -999 0.074418 0.40396 -0.791624
2008-11-26 07:56:18 51°14.271 2°55.238 -999 0.074418 0.40396 -0.791624
2008-11-26 07:56:23 51°14.28 2°55.223 -999 0.074418 0.403946 -0.791624
2008-11-26 07:56:28 51°14.29 2°55.207 -999 0.074418 0.403946 -0.791624
2008-11-26 07:56:32 51°14.297 2°55.194 -999 0.074418 0.403953 -0.791624
2008-11-26 07:56:37 51°14.307 2°55.178 -999 0.074418 0.403946 -0.791624
2008-11-26 07:56:42 51°14.317 2°55.161 -999 0.074418 0.40396 -0.791624
2008-11-26 07:56:47 51°14.326 2°55.144 -999 0.074418 0.40396 -0.791624
2008-11-26 07:56:52 51°14.336 2°55.128 -999 0.074418 0.403953 -0.791624
2008-11-26 07:56:57 51°14.346 2°55.112 -999 0.074418 0.403953 -0.791624
2008-11-26 07:57:01 51°14.354 2°55.099 -999 0.074418 0.40396 -0.791624
2008-11-26 07:57:07 51°14.366 2°55.08 -999 0.074418 0.403967 -0.791624
2008-11-26 07:57:11 51°14.374 2°55.067 -999 0.074418 0.403967 -0.791624
2008-11-26 07:57:16 51°14.384 2°55.051 -999 0.074418 0.403967 -0.791624
2008-11-26 07:57:21 51°14.394 2°55.035 -999 0.074418 0.403975 -0.791624
2008-11-26 07:57:26 51°14.404 2°55.019 -999 0.074418 0.403975 -0.791624
2008-11-26 07:57:31 51°14.415 2°55.002 -999 0.074418 0.403975 -0.791624
2008-11-26 07:57:36 51°14.425 2°54.986 -999 0.074418 0.403967 -0.791624
2008-11-26 07:57:41 51°14.435 2°54.969 -999 0.074418 0.403975 -0.7568
2008-11-26 07:57:45 51°14.444 2°54.956 -999 0.074418 0.403975 -0.791624
2008-11-26 07:57:51 51°14.456 2°54.936 -999 0.074418 0.403975 -0.7568
2008-11-26 07:57:56 51°14.467 2°54.92 -999 0.074418 0.403975 -0.7568
2008-11-26 07:58:01 51°14.479 2°54.904 -999 0.074418 0.403975 -0.791624
2008-11-26 07:58:06 51°14.491 2°54.888 -999 0.074418 0.403982 -0.791624
2008-11-26 07:58:11 51°14.503 2°54.873 -999 0.074418 0.403989 -0.791624
2008-11-26 07:58:16 51°14.515 2°54.858 -999 0.074418 0.403982 -0.791624
2008-11-26 07:58:21 51°14.527 2°54.843 -999 0.074418 0.403996 -0.791624
2008-11-26 07:58:26 51°14.54 2°54.828 -999 0.074418 0.403996 -0.791624
2008-11-26 07:58:31 51°14.552 2°54.813 -999 0.074418 0.403996 -0.791624
2008-11-26 07:58:36 51°14.565 2°54.799 -999 0.074418 0.403996 -0.791624
2008-11-26 07:58:41 51°14.579 2°54.786 -999 0.074418 0.403982 -0.791624
2008-11-26 07:58:45 51°14.589 2°54.776 -999 0.074418 0.403982 -0.791624
2008-11-26 07:58:51 51°14.606 2°54.763 -999 0.074418 0.403989 -0.7568
2008-11-26 07:58:56 51°14.619 2°54.751 -999 0.074418 0.403989 -0.7568
2008-11-26 07:59:01 51°14.633 2°54.739 -999 0.074418 0.404003 -0.791624
2008-11-26 07:59:05 51°14.644 2°54.729 -999 0.074418 0.404003 -0.791624
2008-11-26 07:59:11 51°14.661 2°54.715 -999 0.074418 0.404003 -0.791624
2008-11-26 07:59:16 51°14.676 2°54.703 -999 0.074418 0.404003 -0.7568
2008-11-26 07:59:21 51°14.69 2°54.691 -999 0.074418 0.404003 -0.791624
2008-11-26 07:59:26 51°14.704 2°54.68 -999 0.074418 0.404003 -0.791624
2008-11-26 07:59:31 51°14.719 2°54.668 -999 0.074418 0.40401 -0.7568
2008-11-26 07:59:36 51°14.733 2°54.655 -999 0.074418 0.40401 -0.791624
2008-11-26 07:59:41 51°14.748 2°54.642 -999 0.074418 0.40401 -0.791624
2008-11-26 07:59:46 51°14.762 2°54.63 -999 0.074418 0.40401 -0.791624
2008-11-26 07:59:51 51°14.776 2°54.617 -999 0.074418 0.404003 -0.791624
2008-11-26 07:59:56 51°14.79 2°54.605 -999 0.074418 0.404003 -0.791624
2008-11-26 08:00:01 51°14.805 2°54.592 -999 0.074418 0.404003 -0.791624
2008-11-26 08:00:06 51°14.819 2°54.579 -999 0.074418 0.404003 -0.791624
2008-11-26 08:00:11 51°14.833 2°54.567 -999 0.074418 0.404003 -0.791624
2008-11-26 08:00:16 51°14.848 2°54.555 -999 0.074418 0.404003 -0.791624
2008-11-26 08:00:21 51°14.862 2°54.542 -999 0.074418 0.404017 -0.791624
2008-11-26 08:00:26 51°14.876 2°54.53 -999 0.074418 0.404017 -0.791624
2008-11-26 08:00:31 51°14.891 2°54.517 -999 0.074418 0.404017 -0.791624
2008-11-26 08:00:36 51°14.905 2°54.504 -999 0.074418 0.404017 -0.791624
2008-11-26 08:00:41 51°14.919 2°54.491 -999 0.074418 0.404017 -0.791624
2008-11-26 08:00:45 51°14.931 2°54.481 -999 0.074418 0.404024 -0.7568
2008-11-26 08:00:51 51°14.947 2°54.464 -999 0.074418 0.404024 -0.791624
2008-11-26 08:00:56 51°14.961 2°54.45 -999 0.074418 0.404024 -0.791624
2008-11-26 08:01:01 51°14.975 2°54.436 -999 0.074418 0.404024 -0.791624
2008-11-26 08:01:06 51°14.988 2°54.423 -999 0.074418 0.404024 -0.791624
2008-11-26 08:01:11 51°15.002 2°54.409 -999 0.074418 0.404024 -0.791624
2008-11-26 08:01:16 51°15.016 2°54.396 -999 0.074418 0.404031 -0.791624
2008-11-26 08:01:21 51°15.03 2°54.383 -999 0.074418 0.404024 -0.826448
2008-11-26 08:01:26 51°15.044 2°54.37 -999 0.074418 0.404024 -0.826448
2008-11-26 08:01:31 51°15.057 2°54.356 -999 0.074418 0.404038 -0.7568
2008-11-26 08:01:36 51°15.071 2°54.342 -999 0.074418 0.404038 -0.791624
2008-11-26 08:01:41 51°15.084 2°54.328 -999 0.074418 0.404045 -0.7568
2008-11-26 08:01:46 51°15.098 2°54.314 -999 0.074418 0.404045 -0.7568
2008-11-26 08:01:51 51°15.111 2°54.299 -999 0.074418 0.404038 -0.791624
2008-11-26 08:01:56 51°15.125 2°54.284 -999 0.074418 0.404038 -0.791624
2008-11-26 08:02:01 51°15.138 2°54.269 -999 0.074418 0.404052 -0.791624
2008-11-26 08:02:06 51°15.151 2°54.255 -999 0.074418 0.404038 -0.791624
2008-11-26 08:02:11 51°15.164 2°54.24 -999 0.074418 0.404038 -0.7568
2008-11-26 08:02:16 51°15.178 2°54.226 -999 0.074418 0.404038 -0.826448
2008-11-26 08:02:21 51°15.191 2°54.212 -999 0.074418 0.404045 -0.7568
2008-11-26 08:02:26 51°15.205 2°54.198 -999 0.074418 0.404045 -0.7568
2008-11-26 08:02:31 51°15.219 2°54.184 -999 0.074418 0.404052 -0.791624
2008-11-26 08:02:36 51°15.232 2°54.17 -999 0.074418 0.404059 -0.7568
2008-11-26 08:02:41 51°15.245 2°54.155 -999 0.074418 0.404066 -0.791624
2008-11-26 08:02:46 51°15.259 2°54.141 -999 0.074521 0.404644 -0.791624
2008-11-26 08:02:51 51°15.272 2°54.127 -999 0.074418 0.404066 -0.791624
2008-11-26 08:02:56 51°15.286 2°54.113 -999 0.074418 0.404066 -0.791624
2008-11-26 08:03:01 51°15.299 2°54.099 -999 0.074521 0.404644 -0.791624
2008-11-26 08:03:06 51°15.313 2°54.086 -999 0.074418 0.404066 -0.7568
2008-11-26 08:03:11 51°15.326 2°54.071 -999 0.074418 0.404066 -0.7568
2008-11-26 08:03:16 51°15.34 2°54.057 -999 0.074418 0.404066 -0.791624
2008-11-26 08:03:21 51°15.353 2°54.042 -999 0.074418 0.404059 -0.791624
2008-11-26 08:03:26 51°15.367 2°54.029 -999 0.074418 0.404059 -0.791624
2008-11-26 08:03:31 51°15.381 2°54.015 -999 0.074418 0.404066 -0.7568
2008-11-26 08:03:36 51°15.395 2°54.001 -999 0.074418 0.404081 -0.791624
2008-11-26 08:03:41 51°15.408 2°53.986 -999 0.074521 0.404658 -0.791624
2008-11-26 08:03:45 51°15.419 2°53.975 -999 0.074521 0.404666 -0.791624
2008-11-26 08:03:51 51°15.435 2°53.958 -999 0.074521 0.404666 -0.7568
2008-11-26 08:03:56 51°15.449 2°53.944 -999 0.074521 0.404666 -0.7568
2008-11-26 08:04:01 51°15.462 2°53.93 -999 0.074521 0.404658 -0.791624
2008-11-26 08:04:05 51°15.474 2°53.918 -999 0.074521 0.404658 -0.791624
2008-11-26 08:04:11 51°15.49 2°53.901 -999 0.074521 0.404658 -0.7568
2008-11-26 08:04:16 51°15.503 2°53.886 -999 0.074521 0.404658 -0.7568
2008-11-26 08:04:21 51°15.517 2°53.872 -999 0.074418 0.404088 -0.791624
2008-11-26 08:04:26 51°15.531 2°53.857 -999 0.074418 0.404088 -0.791624
2008-11-26 08:04:31 51°15.544 2°53.843 -999 0.074521 0.404658 -0.7568
2008-11-26 08:04:36 51°15.558 2°53.828 -999 0.074521 0.404666 -0.791624
2008-11-26 08:04:41 51°15.571 2°53.813 -999 0.074521 0.404666 -0.791624
2008-11-26 08:04:46 51°15.585 2°53.799 -999 0.074521 0.404666 -0.791624
2008-11-26 08:04:51 51°15.599 2°53.785 -999 0.074521 0.404673 -0.791624
2008-11-26 08:04:56 51°15.612 2°53.771 -999 0.074521 0.404673 -0.791624
2008-11-26 08:05:01 51°15.626 2°53.757 -999 0.074521 0.40468 -0.791624
2008-11-26 08:05:06 51°15.639 2°53.744 -999 0.074521 0.40468 -0.861272
2008-11-26 08:05:11 51°15.653 2°53.73 -999 0.074521 0.404694 -0.791624
2008-11-26 08:05:16 51°15.666 2°53.716 -999 0.074521 0.404687 -0.791624
2008-11-26 08:05:21 51°15.68 2°53.702 -999 0.074521 0.40468 -0.7568
2008-11-26 08:05:26 51°15.693 2°53.688 -999 0.074521 0.40468 -0.7568
2008-11-26 08:05:31 51°15.707 2°53.674 -999 0.074521 0.404694 -0.791624
2008-11-26 08:05:36 51°15.72 2°53.661 -999 0.074521 0.404694 -0.791624
2008-11-26 08:05:41 51°15.734 2°53.647 -999 0.074521 0.404694 -0.791624
2008-11-26 08:05:46 51°15.747 2°53.633 -999 0.074521 0.404694 -0.791624
2008-11-26 08:05:51 51°15.761 2°53.619 -999 0.074521 0.404694 -0.826448
2008-11-26 08:05:56 51°15.774 2°53.606 -999 0.074521 0.404694 -0.826448
2008-11-26 08:06:01 51°15.788 2°53.592 -999 0.074521 0.404701 -0.791624
2008-11-26 08:06:06 51°15.801 2°53.578 -999 0.074521 0.404701 -0.791624
2008-11-26 08:06:11 51°15.815 2°53.564 -999 0.074521 0.404701 -0.791624
2008-11-26 08:06:16 51°15.829 2°53.55 -999 0.074521 0.404701 -0.791624
2008-11-26 08:06:21 51°15.843 2°53.537 -999 0.074521 0.404701 -0.791624
2008-11-26 08:06:26 51°15.857 2°53.524 -999 0.074521 0.404701 -0.791624
2008-11-26 08:06:31 51°15.871 2°53.511 -999 0.074521 0.404715 -0.791624
2008-11-26 08:06:36 51°15.885 2°53.499 -999 0.074521 0.404701 -0.791624
2008-11-26 08:06:41 51°15.899 2°53.487 -999 0.074521 0.404708 -0.791624
2008-11-26 08:06:46 51°15.913 2°53.474 -999 0.074521 0.404715 -0.7568
2008-11-26 08:06:51 51°15.927 2°53.461 -999 0.074521 0.404715 -0.791624
2008-11-26 08:06:56 51°15.941 2°53.448 -999 0.074521 0.404715 -0.791624
2008-11-26 08:07:01 51°15.956 2°53.435 -999 0.074521 0.404715 -0.791624
2008-11-26 08:07:06 51°15.969 2°53.422 -999 0.074521 0.404722 -0.7568
2008-11-26 08:07:11 51°15.983 2°53.409 -999 0.074521 0.404715 -0.791624
2008-11-26 08:07:16 51°15.997 2°53.396 -999 0.074521 0.404722 -0.7568
2008-11-26 08:07:21 51°16.011 2°53.382 -999 0.074521 0.404722 -0.7568
2008-11-26 08:07:26 51°16.025 2°53.369 -999 0.074521 0.404722 -0.7568
2008-11-26 08:07:31 51°16.038 2°53.357 -999 0.074521 0.404715 -0.791624
2008-11-26 08:07:36 51°16.052 2°53.344 -999 0.074521 0.404722 -0.7568
2008-11-26 08:07:41 51°16.066 2°53.331 -999 0.074521 0.404729 -0.791624
2008-11-26 08:07:46 51°16.08 2°53.318 -999 0.074521 0.404729 -0.7568
2008-11-26 08:07:51 51°16.094 2°53.304 -999 0.074521 0.404743 -0.791624
2008-11-26 08:07:56 51°16.108 2°53.292 -999 0.074521 0.404743 -0.791624
2008-11-26 08:08:01 51°16.122 2°53.279 -999 0.074521 0.404736 -0.7568
2008-11-26 08:08:06 51°16.136 2°53.266 -999 0.074521 0.404743 -0.7568
2008-11-26 08:08:11 51°16.149 2°53.253 -999 0.074521 0.404736 -0.7568
2008-11-26 08:08:16 51°16.163 2°53.24 -999 0.074521 0.404743 -0.7568
2008-11-26 08:08:21 51°16.177 2°53.227 -999 0.074521 0.404751 -0.791624
2008-11-26 08:08:26 51°16.191 2°53.214 -999 0.074521 0.404751 -0.791624
2008-11-26 08:08:31 51°16.205 2°53.202 -999 0.074521 0.404743 -0.791624
2008-11-26 08:08:36 51°16.219 2°53.189 -999 0.074521 0.404751 -0.791624
2008-11-26 08:08:41 51°16.233 2°53.177 -999 0.074521 0.404758 -0.7568
2008-11-26 08:08:46 51°16.246 2°53.164 -999 0.074521 0.404758 -0.791624
2008-11-26 08:08:51 51°16.26 2°53.151 -999 0.074521 0.404765 -0.791624
2008-11-26 08:08:56 51°16.274 2°53.139 -999 0.074521 0.404765 -0.791624
2008-11-26 08:09:01 51°16.288 2°53.126 -999 0.074521 0.404765 -0.826448
2008-11-26 08:09:06 51°16.302 2°53.114 -999 0.074521 0.404779 -0.7568
2008-11-26 08:09:11 51°16.315 2°53.101 -999 0.074521 0.404765 -0.7568
2008-11-26 08:09:16 51°16.329 2°53.088 -999 0.074521 0.404772 -0.791624
2008-11-26 08:09:21 51°16.343 2°53.076 -999 0.074521 0.404772 -0.7568
2008-11-26 08:09:26 51°16.356 2°53.064 -999 0.074521 0.404772 -0.7568
2008-11-26 08:09:31 51°16.37 2°53.051 -999 0.074521 0.404765 -0.791624
2008-11-26 08:09:36 51°16.384 2°53.038 -999 0.074521 0.404786 -0.7568
2008-11-26 08:09:41 51°16.398 2°53.026 -999 0.074521 0.404793 -0.7568
2008-11-26 08:09:46 51°16.411 2°53.013 -999 0.074521 0.404793 -0.791624
2008-11-26 08:09:51 51°16.425 2°53.001 -999 0.074521 0.4048 -0.791624
2008-11-26 08:09:56 51°16.439 2°52.988 -999 0.074521 0.4048 -0.791624
2008-11-26 08:10:01 51°16.453 2°52.976 -999 0.074521 0.4048 -0.7568
2008-11-26 08:10:05 51°16.464 2°52.967 -999 0.074521 0.4048 -0.791624
2008-11-26 08:10:11 51°16.482 2°52.952 -999 0.074521 0.4048 -0.7568
2008-11-26 08:10:16 51°16.496 2°52.94 -999 0.074521 0.404807 -0.7568
2008-11-26 08:10:21 51°16.51 2°52.928 -999 0.074521 0.404807 -0.791624
2008-11-26 08:10:25 51°16.521 2°52.918 -999 0.074521 0.404807 -0.791624
2008-11-26 08:10:31 51°16.539 2°52.904 -999 0.074521 0.404807 -0.7568
2008-11-26 08:10:36 51°16.553 2°52.892 -999 0.074521 0.404814 -0.791624
2008-11-26 08:10:41 51°16.567 2°52.88 -999 0.074521 0.404821 -0.7568
2008-11-26 08:10:46 51°16.581 2°52.868 -999 0.074521 0.404821 -0.791624
2008-11-26 08:10:51 51°16.596 2°52.856 -999 0.074521 0.404829 -0.791624
2008-11-26 08:10:56 51°16.61 2°52.845 -999 0.074521 0.404829 -0.791624
2008-11-26 08:11:01 51°16.625 2°52.833 -999 0.074521 0.404829 -0.791624
2008-11-26 08:11:06 51°16.639 2°52.822 -999 0.074521 0.404829 -0.791624
2008-11-26 08:11:11 51°16.654 2°52.811 -999 0.074521 0.404836 -0.791624
2008-11-26 08:11:16 51°16.668 2°52.801 -999 0.074521 0.404836 -0.791624
2008-11-26 08:11:21 51°16.683 2°52.791 -999 0.074521 0.404836 -0.826448
2008-11-26 08:11:26 51°16.698 2°52.781 -999 0.074521 0.404836 -0.826448
2008-11-26 08:11:31 51°16.712 2°52.77 -999 0.074521 0.404864 -0.791624
2008-11-26 08:11:36 51°16.725 2°52.759 -999 0.074521 0.40485 -0.791624
2008-11-26 08:11:41 51°16.74 2°52.748 -999 0.074521 0.40485 -0.791624
2008-11-26 08:11:46 51°16.754 2°52.737 -999 0.074521 0.404857 -0.791624
2008-11-26 08:11:51 51°16.768 2°52.726 -999 0.074521 0.404857 -0.7568
2008-11-26 08:11:56 51°16.782 2°52.715 -999 0.074521 0.404857 -0.7568
2008-11-26 08:12:01 51°16.796 2°52.703 -999 0.074521 0.404878 -0.791624
2008-11-26 08:12:06 51°16.809 2°52.692 -999 0.074521 0.404864 -0.7568
2008-11-26 08:12:11 51°16.823 2°52.68 -999 0.074521 0.404878 -0.791624
2008-11-26 08:12:16 51°16.837 2°52.668 -999 0.074521 0.404878 -0.7568
2008-11-26 08:12:21 51°16.85 2°52.655 -999 0.074521 0.404871 -0.7568
2008-11-26 08:12:26 51°16.864 2°52.644 -999 0.074521 0.404871 -0.7568
2008-11-26 08:12:31 51°16.877 2°52.633 -999 0.074521 0.404878 -0.7568
2008-11-26 08:12:36 51°16.891 2°52.622 -999 0.074521 0.404892 -0.791624
2008-11-26 08:12:41 51°16.905 2°52.609 -999 0.074521 0.404885 -0.791624
2008-11-26 08:12:46 51°16.919 2°52.598 -999 0.074521 0.404907 -0.7568
2008-11-26 08:12:51 51°16.932 2°52.586 -999 0.074521 0.4049 -0.791624
2008-11-26 08:12:56 51°16.946 2°52.574 -999 0.074521 0.4049 -0.791624
2008-11-26 08:13:01 51°16.959 2°52.562 -999 0.074521 0.404907 -0.7568
2008-11-26 08:13:06 51°16.973 2°52.551 -999 0.074521 0.404907 -0.791624
2008-11-26 08:13:11 51°16.986 2°52.539 -999 0.074521 0.404907 -0.791624
2008-11-26 08:13:16 51°16.999 2°52.527 -999 0.074521 0.404914 -0.7568
2008-11-26 08:13:21 51°17.013 2°52.516 -999 0.074521 0.4049 -0.791624
2008-11-26 08:13:26 51°17.026 2°52.503 -999 0.074521 0.4049 -0.791624
2008-11-26 08:13:31 51°17.039 2°52.493 -999 0.074521 0.404914 -0.7568
2008-11-26 08:13:36 51°17.052 2°52.481 -999 0.074521 0.4049 -0.791624
2008-11-26 08:13:41 51°17.065 2°52.471 -999 0.074521 0.404921 -0.791624
2008-11-26 08:13:46 51°17.079 2°52.46 -999 0.074521 0.404928 -0.791624
2008-11-26 08:13:51 51°17.092 2°52.449 -999 0.074521 0.404935 -0.791624
2008-11-26 08:13:56 51°17.106 2°52.439 -999 0.074521 0.404935 -0.791624
2008-11-26 08:14:01 51°17.12 2°52.428 -999 0.074521 0.404942 -0.7568
2008-11-26 08:14:06 51°17.133 2°52.418 -999 0.074521 0.404949 -0.7568
2008-11-26 08:14:11 51°17.147 2°52.407 -999 0.074521 0.404942 -0.7568
2008-11-26 08:14:16 51°17.16 2°52.397 -999 0.074521 0.404956 -0.7568
2008-11-26 08:14:21 51°17.174 2°52.386 -999 0.074521 0.40497 -0.7568
2008-11-26 08:14:26 51°17.187 2°52.375 -999 0.074521 0.40497 -0.7568
2008-11-26 08:14:31 51°17.201 2°52.364 -999 0.074521 0.404956 -0.791624
2008-11-26 08:14:36 51°17.214 2°52.353 -999 0.074521 0.404956 -0.791624
2008-11-26 08:14:41 51°17.228 2°52.342 -999 0.074521 0.40497 -0.7568
2008-11-26 08:14:46 51°17.241 2°52.33 -999 0.074521 0.404956 -0.7568
2008-11-26 08:14:51 51°17.255 2°52.321 -999 0.074521 0.404963 -0.791624
2008-11-26 08:14:56 51°17.269 2°52.31 -999 0.074521 0.404963 -0.791624
2008-11-26 08:15:01 51°17.283 2°52.301 -999 0.074521 0.404985 -0.7568
2008-11-26 08:15:06 51°17.297 2°52.291 -999 0.074521 0.404992 -0.791624
2008-11-26 08:15:11 51°17.311 2°52.283 -999 0.074521 0.405006 -0.7568
2008-11-26 08:15:16 51°17.325 2°52.275 -999 0.074521 0.404992 -0.791624
2008-11-26 08:15:21 51°17.34 2°52.268 -999 0.074521 0.404999 -0.791624
2008-11-26 08:15:26 51°17.354 2°52.261 -999 0.074521 0.404999 -0.791624
2008-11-26 08:15:31 51°17.369 2°52.255 -999 0.074521 0.404999 -0.7568
2008-11-26 08:15:36 51°17.383 2°52.249 -999 0.074521 0.404992 -0.791624
2008-11-26 08:15:41 51°17.398 2°52.243 -999 0.074521 0.404992 -0.826448
2008-11-26 08:15:45 51°17.41 2°52.24 -999 0.074521 0.404999 -0.791624
2008-11-26 08:15:51 51°17.428 2°52.234 -999 0.074521 0.404999 -0.791624
2008-11-26 08:15:56 51°17.443 2°52.23 -999 0.074521 0.404999 -0.791624
2008-11-26 08:16:01 51°17.458 2°52.227 -999 0.074521 0.405006 -0.7568
2008-11-26 08:16:05 51°17.47 2°52.224 -999 0.074521 0.405013 -0.791624
2008-11-26 08:16:11 51°17.488 2°52.219 -999 0.074521 0.405006 -0.791624
2008-11-26 08:16:16 51°17.503 2°52.215 -999 0.074521 0.40502 -0.791624
2008-11-26 08:16:21 51°17.517 2°52.211 -999 0.074521 0.405027 -0.791624
2008-11-26 08:16:26 51°17.533 2°52.207 -999 0.074521 0.405027 -0.791624
2008-11-26 08:16:31 51°17.547 2°52.203 -999 0.074521 0.405027 -0.7568
2008-11-26 08:16:36 51°17.562 2°52.201 -999 0.074521 0.405034 -0.791624
2008-11-26 08:16:41 51°17.577 2°52.197 -999 0.074521 0.405034 -0.791624
2008-11-26 08:16:46 51°17.593 2°52.196 -999 0.074521 0.405041 -0.791624
2008-11-26 08:16:51 51°17.608 2°52.193 -999 0.074521 0.405049 -0.7568
2008-11-26 08:16:56 51°17.623 2°52.192 -999 0.074521 0.405049 -0.7568
2008-11-26 08:17:01 51°17.638 2°52.189 -999 0.074521 0.405049 -0.791624
2008-11-26 08:17:06 51°17.653 2°52.186 -999 0.074521 0.405056 -0.791624
2008-11-26 08:17:11 51°17.668 2°52.184 -999 0.074521 0.405063 -0.791624
2008-11-26 08:17:16 51°17.683 2°52.18 -999 0.074521 0.405056 -0.791624
2008-11-26 08:17:21 51°17.699 2°52.177 -999 0.074521 0.405056 -0.7568
2008-11-26 08:17:26 51°17.714 2°52.173 -999 0.074521 0.405056 -0.7568
2008-11-26 08:17:31 51°17.729 2°52.171 -999 0.074521 0.405063 -0.791624
2008-11-26 08:17:36 51°17.744 2°52.168 -999 0.074521 0.405063 -0.791624
2008-11-26 08:17:41 51°17.759 2°52.166 -999 0.074521 0.405077 -0.791624
2008-11-26 08:17:46 51°17.773 2°52.164 -999 0.074521 0.405091 -0.791624
2008-11-26 08:17:51 51°17.789 2°52.161 -999 0.074521 0.405091 -0.791624
2008-11-26 08:17:56 51°17.803 2°52.159 -999 0.074521 0.405091 -0.791624
2008-11-26 08:18:01 51°17.818 2°52.156 -999 0.074521 0.405105 -0.7568
2008-11-26 08:18:06 51°17.833 2°52.152 -999 0.074521 0.405098 -0.791624
2008-11-26 08:18:11 51°17.848 2°52.149 -999 0.074521 0.405112 -0.791624
2008-11-26 08:18:16 51°17.863 2°52.146 -999 0.074521 0.405112 -0.791624
2008-11-26 08:18:21 51°17.878 2°52.143 -999 0.074521 0.405112 -0.791624
2008-11-26 08:18:26 51°17.893 2°52.141 -999 0.074521 0.405112 -0.791624
2008-11-26 08:18:31 51°17.908 2°52.138 -999 0.074521 0.40512 -0.791624
2008-11-26 08:18:36 51°17.922 2°52.135 -999 0.074521 0.40512 -0.826448
2008-11-26 08:18:41 51°17.937 2°52.132 -999 0.074521 0.405134 -0.791624
2008-11-26 08:18:46 51°17.952 2°52.129 -999 0.074521 0.405141 -0.7568
2008-11-26 08:18:51 51°17.967 2°52.125 -999 0.074521 0.405141 -0.7568
2008-11-26 08:18:56 51°17.982 2°52.121 -999 0.074521 0.405141 -0.7568
2008-11-26 08:19:01 51°17.996 2°52.117 -999 0.074521 0.405148 -0.791624
2008-11-26 08:19:06 51°18.011 2°52.113 -999 0.074521 0.405148 -0.791624
2008-11-26 08:19:11 51°18.026 2°52.11 -999 0.074521 0.405155 -0.791624
2008-11-26 08:19:16 51°18.041 2°52.107 -999 0.074521 0.405169 -0.791624
2008-11-26 08:19:21 51°18.055 2°52.105 -999 0.074521 0.405176 -0.791624
2008-11-26 08:19:26 51°18.07 2°52.102 -999 0.074521 0.405176 -0.791624
2008-11-26 08:19:31 51°18.085 2°52.1 -999 0.074521 0.405176 -0.791624
2008-11-26 08:19:36 51°18.099 2°52.098 -999 0.074521 0.405169 -0.791624
2008-11-26 08:19:41 51°18.114 2°52.096 -999 0.074521 0.405176 -0.791624
2008-11-26 08:19:46 51°18.129 2°52.093 -999 0.074521 0.405191 -0.791624
2008-11-26 08:19:51 51°18.144 2°52.092 -999 0.074521 0.405198 -0.791624
2008-11-26 08:19:56 51°18.159 2°52.089 -999 0.074521 0.405198 -0.791624
2008-11-26 08:20:01 51°18.173 2°52.087 -999 0.074521 0.405212 -0.7568
2008-11-26 08:20:06 51°18.188 2°52.084 -999 0.074521 0.405212 -0.826448
2008-11-26 08:20:11 51°18.203 2°52.081 -999 0.074521 0.405219 -0.791624
2008-11-26 08:20:16 51°18.218 2°52.079 -999 0.074521 0.405219 -0.791624
2008-11-26 08:20:21 51°18.232 2°52.075 -999 0.074521 0.405233 -0.791624
2008-11-26 08:20:26 51°18.247 2°52.074 -999 0.074521 0.405233 -0.791624
2008-11-26 08:20:31 51°18.262 2°52.07 -999 0.074521 0.405226 -0.791624
2008-11-26 08:20:36 51°18.276 2°52.069 -999 0.074521 0.405226 -0.7568
2008-11-26 08:20:41 51°18.291 2°52.066 -999 0.074521 0.405226 -0.791624
2008-11-26 08:20:46 51°18.306 2°52.065 -999 0.074521 0.405248 -0.7568
2008-11-26 08:20:51 51°18.321 2°52.063 -999 0.074521 0.405248 -0.791624
2008-11-26 08:20:56 51°18.336 2°52.061 -999 0.074521 0.405248 -0.791624
2008-11-26 08:21:01 51°18.351 2°52.059 -999 0.074521 0.405262 -0.7568
2008-11-26 08:21:06 51°18.367 2°52.057 -999 0.074521 0.405269 -0.791624
2008-11-26 08:21:11 51°18.382 2°52.054 -999 0.074521 0.405262 -0.791624
2008-11-26 08:21:16 51°18.397 2°52.052 -999 0.074521 0.405269 -0.7568
2008-11-26 08:21:21 51°18.412 2°52.049 -999 0.074521 0.405276 -0.791624
2008-11-26 08:21:26 51°18.428 2°52.046 -999 0.074521 0.405276 -0.791624
2008-11-26 08:21:31 51°18.443 2°52.043 -999 0.074521 0.40529 -0.791624
2008-11-26 08:21:36 51°18.458 2°52.04 -999 0.074521 0.40529 -0.791624
2008-11-26 08:21:41 51°18.472 2°52.037 -999 0.074521 0.40529 -0.7568
2008-11-26 08:21:45 51°18.485 2°52.035 -999 0.074521 0.40529 -0.791624
2008-11-26 08:21:51 51°18.503 2°52.031 -999 0.074521 0.405319 -0.7568
2008-11-26 08:21:56 51°18.518 2°52.029 -999 0.074521 0.405319 -0.7568
2008-11-26 08:22:01 51°18.533 2°52.024 -999 0.074521 0.405319 -0.791624
2008-11-26 08:22:05 51°18.546 2°52.022 -999 0.074521 0.405333 -0.791624
2008-11-26 08:22:11 51°18.563 2°52.018 -999 0.074521 0.405333 -0.791624
2008-11-26 08:22:16 51°18.578 2°52.016 -999 0.074521 0.405347 -0.7568
2008-11-26 08:22:21 51°18.593 2°52.012 -999 0.074521 0.40534 -0.791624
2008-11-26 08:22:26 51°18.608 2°52.008 -999 0.074521 0.40534 -0.791624
2008-11-26 08:22:31 51°18.623 2°52.005 -999 0.074521 0.405354 -0.791624
2008-11-26 08:22:36 51°18.638 2°52.001 -999 0.074521 0.405347 -0.791624
2008-11-26 08:22:41 51°18.653 2°51.998 -999 0.074521 0.405347 -0.791624
2008-11-26 08:22:46 51°18.668 2°51.995 -999 0.074521 0.405354 -0.791624
2008-11-26 08:22:51 51°18.684 2°51.992 -999 0.074521 0.405354 -0.791624
2008-11-26 08:22:56 51°18.699 2°51.989 -999 0.074521 0.405354 -0.791624
2008-11-26 08:23:01 51°18.714 2°51.987 -999 0.074521 0.405376 -0.7568
2008-11-26 08:23:06 51°18.729 2°51.983 -999 0.074521 0.405383 -0.791624
2008-11-26 08:23:11 51°18.744 2°51.98 -999 0.074521 0.405397 -0.7568
2008-11-26 08:23:16 51°18.76 2°51.976 -999 0.074521 0.405404 -0.791624
2008-11-26 08:23:21 51°18.775 2°51.972 -999 0.074521 0.405404 -0.791624
2008-11-26 08:23:26 51°18.79 2°51.969 -999 0.074521 0.405404 -0.791624
2008-11-26 08:23:31 51°18.805 2°51.966 -999 0.074521 0.405411 -0.791624
2008-11-26 08:23:36 51°18.82 2°51.964 -999 0.074521 0.405418 -0.791624
2008-11-26 08:23:41 51°18.836 2°51.961 -999 0.074521 0.405425 -0.791624
2008-11-26 08:23:46 51°18.851 2°51.958 -999 0.074521 0.405447 -0.791624
2008-11-26 08:23:51 51°18.867 2°51.956 -999 0.074521 0.40544 -0.791624
2008-11-26 08:23:56 51°18.882 2°51.953 -999 0.074521 0.40544 -0.791624
2008-11-26 08:24:01 51°18.897 2°51.95 -999 0.074521 0.405447 -0.791624
2008-11-26 08:24:06 51°18.913 2°51.948 -999 0.074521 0.405454 -0.791624
2008-11-26 08:24:11 51°18.928 2°51.945 -999 0.074521 0.405461 -0.791624
2008-11-26 08:24:16 51°18.943 2°51.942 -999 0.074521 0.405482 -0.791624
2008-11-26 08:24:21 51°18.959 2°51.939 -999 0.074521 0.405475 -0.7568
2008-11-26 08:24:26 51°18.974 2°51.935 -999 0.074521 0.405475 -0.7568
2008-11-26 08:24:31 51°18.989 2°51.933 -999 0.074521 0.405475 -0.791624
2008-11-26 08:24:36 51°19.005 2°51.93 -999 0.074521 0.405489 -0.7568
2008-11-26 08:24:41 51°19.02 2°51.927 -999 0.074521 0.405504 -0.791624
2008-11-26 08:24:46 51°19.035 2°51.923 -999 0.074521 0.405504 -0.791624
2008-11-26 08:24:51 51°19.051 2°51.919 -999 0.074521 0.405518 -0.791624
2008-11-26 08:24:56 51°19.066 2°51.914 -999 0.074521 0.405518 -0.791624
2008-11-26 08:25:01 51°19.082 2°51.909 -999 0.074521 0.405518 -0.791624
2008-11-26 08:25:06 51°19.097 2°51.905 -999 0.074521 0.405518 -0.791624
2008-11-26 08:25:11 51°19.112 2°51.901 -999 0.074521 0.405518 -0.7568
2008-11-26 08:25:16 51°19.127 2°51.897 -999 0.074521 0.405518 -0.826448
2008-11-26 08:25:21 51°19.143 2°51.894 -999 0.074521 0.405532 -0.7568
2008-11-26 08:25:26 51°19.158 2°51.891 -999 0.074521 0.405532 -0.7568
2008-11-26 08:25:31 51°19.173 2°51.888 -999 0.074521 0.405532 -0.791624
2008-11-26 08:25:36 51°19.188 2°51.884 -999 0.074521 0.405554 -0.791624
2008-11-26 08:25:41 51°19.203 2°51.881 -999 0.074521 0.405561 -0.791624
2008-11-26 08:25:46 51°19.218 2°51.878 -999 0.074521 0.405554 -0.791624
2008-11-26 08:25:51 51°19.233 2°51.874 -999 0.074521 0.405568 -0.791624
2008-11-26 08:25:56 51°19.248 2°51.871 -999 0.074521 0.405568 -0.791624